Time,TemperatureF,DewpointF,PressureIn,WindDirection,WindDirectionDegrees,WindSpeedMPH,WindSpeedGustMPH,Humidity,HourlyPrecipIn,Conditions,Clouds,dailyrainin,SoftwareType,DateUTC
2013-06-01 00:00:00,70.1,66.1,29.05,South,182,6.0,26.0,87,0.00,,,0.02,WUHU216DAVISVP2,2013-06-01 04:00:00,
2013-06-01 00:01:00,70.1,66.1,29.05,South,180,10.0,26.0,87,0.00,,,0.02,WUHU216DAVISVP2,2013-06-01 04:01:00,
2013-06-01 00:06:00,69.3,65.6,29.05,South,182,4.0,19.0,88,0.00,,,0.02,WUHU216DAVISVP2,2013-06-01 04:06:00,
2013-06-01 00:07:00,69.3,65.9,29.05,SSW,206,2.0,19.0,89,0.00,,,0.02,WUHU216DAVISVP2,2013-06-01 04:07:00,
2013-06-01 00:11:00,69.3,65.9,29.05,SSW,202,5.0,16.0,89,0.00,,,0.02,WUHU216DAVISVP2,2013-06-01 04:11:00,
2013-06-01 00:12:00,69.2,66.1,29.05,SSW,194,1.0,16.0,90,0.00,,,0.00,WUHU216DAVISVP2,2013-06-01 04:12:00,
2013-06-01 00:16:00,69.1,66.0,29.05,South,179,4.0,12.0,90,0.00,,,0.00,WUHU216DAVISVP2,2013-06-01 04:16:00,
2013-06-01 00:17:00,69.1,66.0,29.05,South,181,0.0,12.0,90,0.00,,,0.00,WUHU216DAVISVP2,2013-06-01 04:17:00,
2013-06-01 00:21:00,69.1,66.3,29.05,SSW,201,1.0,12.0,91,0.00,,,0.00,WUHU216DAVISVP2,2013-06-01 04:21:00,
2013-06-01 00:22:00,69.1,66.3,29.05,South,189,0.0,12.0,91,0.00,,,0.00,WUHU216DAVISVP2,2013-06-01 04:22:00,
2013-06-01 00:26:00,69.1,66.3,29.04,SSE,158,3.0,9.0,91,0.00,,,0.00,WUHU216DAVISVP2,2013-06-01 04:26:00,
2013-06-01 00:27:00,69.1,66.6,29.04,SW,218,1.0,9.0,92,0.00,,,0.00,WUHU216DAVISVP2,2013-06-01 04:27:00,
2013-06-01 00:31:00,69.2,66.7,29.04,SW,220,2.0,9.0,92,0.00,,,0.00,WUHU216DAVISVP2,2013-06-01 04:31:00,
2013-06-01 00:32:00,69.3,67.2,29.04,SSW,208,2.0,9.0,93,0.00,,,0.00,WUHU216DAVISVP2,2013-06-01 04:32:00,
2013-06-01 00:33:00,69.3,67.2,29.04,SSW,208,1.0,9.0,93,0.00,,,0.00,WUHU216DAVISVP2,2013-06-01 04:33:00,
2013-06-01 00:37:00,69.6,67.5,29.04,SW,224,2.0,9.0,93,0.00,,,0.00,WUHU216DAVISVP2,2013-06-01 04:37:00,
2013-06-01 00:38:00,69.7,67.6,29.04,South,188,6.0,9.0,93,0.00,,,0.00,WUHU216DAVISVP2,2013-06-01 04:38:00,
2013-06-01 00:42:00,69.9,67.8,29.03,SSW,197,1.0,9.0,93,0.00,,,0.00,WUHU216DAVISVP2,2013-06-01 04:42:00,
2013-06-01 00:43:00,70.0,67.9,29.03,South,182,4.0,9.0,93,0.00,,,0.00,WUHU216DAVISVP2,2013-06-01 04:43:00,
2013-06-01 00:47:00,70.1,68.3,29.03,South,177,0.0,9.0,94,0.00,,,0.00,WUHU216DAVISVP2,2013-06-01 04:47:00,
2013-06-01 00:48:00,70.1,68.3,29.03,South,177,0.0,9.0,94,0.00,,,0.00,WUHU216DAVISVP2,2013-06-01 04:48:00,
2013-06-01 00:52:00,70.3,68.5,29.02,SSE,154,3.0,9.0,94,0.00,,,0.00,WUHU216DAVISVP2,2013-06-01 04:52:00,
2013-06-01 00:53:00,70.3,68.5,29.02,SSE,154,2.0,9.0,94,0.00,,,0.00,WUHU216DAVISVP2,2013-06-01 04:53:00,
2013-06-01 00:57:00,70.3,68.5,29.02,SSE,164,7.0,7.0,94,0.00,,,0.00,WUHU216DAVISVP2,2013-06-01 04:57:00,
2013-06-01 00:58:00,70.4,68.6,29.02,SW,223,3.0,7.0,94,0.00,,,0.00,WUHU216DAVISVP2,2013-06-01 04:58:00,
2013-06-01 00:59:00,70.4,68.6,29.02,SW,226,4.0,7.0,94,0.00,,,0.00,WUHU216DAVISVP2,2013-06-01 04:59:00,
2013-06-01 01:02:00,70.4,68.6,29.02,SSE,167,1.0,8.0,94,0.00,,,0.00,WUHU216DAVISVP2,2013-06-01 05:02:00,
2013-06-01 01:03:00,70.4,68.6,29.02,SW,226,8.0,8.0,94,0.00,,,0.00,WUHU216DAVISVP2,2013-06-01 05:03:00,
2013-06-01 01:04:00,70.5,68.7,29.02,SSW,195,5.0,8.0,94,0.00,,,0.00,WUHU216DAVISVP2,2013-06-01 05:04:00,
2013-06-01 01:07:00,70.5,68.7,29.02,South,170,1.0,8.0,94,0.00,,,0.00,WUHU216DAVISVP2,2013-06-01 05:07:00,
2013-06-01 01:08:00,70.5,68.7,29.02,SSW,213,1.0,8.0,94,0.00,,,0.00,WUHU216DAVISVP2,2013-06-01 05:08:00,
2013-06-01 01:09:00,70.5,68.7,29.02,SSW,206,1.0,8.0,94,0.00,,,0.00,WUHU216DAVISVP2,2013-06-01 05:09:00,
2013-06-01 01:13:00,70.6,68.8,29.02,SE,134,8.0,10.0,94,0.00,,,0.00,WUHU216DAVISVP2,2013-06-01 05:13:00,
2013-06-01 01:14:00,70.6,68.8,29.02,SSW,212,1.0,10.0,94,0.00,,,0.00,WUHU216DAVISVP2,2013-06-01 05:14:00,
2013-06-01 01:18:00,70.7,68.9,29.01,SW,220,5.0,10.0,94,0.00,,,0.00,WUHU216DAVISVP2,2013-06-01 05:18:00,
2013-06-01 01:19:00,70.7,68.9,29.01,SW,228,6.0,10.0,94,0.00,,,0.00,WUHU216DAVISVP2,2013-06-01 05:19:00,
2013-06-01 01:20:00,70.7,68.9,29.01,SW,225,3.0,13.0,94,0.00,,,0.00,WUHU216DAVISVP2,2013-06-01 05:20:00,
2013-06-01 01:23:00,70.8,69.0,29.01,SSW,198,4.0,13.0,94,0.00,,,0.00,WUHU216DAVISVP2,2013-06-01 05:23:00,
2013-06-01 01:24:00,70.8,69.0,29.01,South,175,6.0,13.0,94,0.00,,,0.00,WUHU216DAVISVP2,2013-06-01 05:24:00,
2013-06-01 01:25:00,70.8,69.0,29.01,SSE,166,10.0,13.0,94,0.00,,,0.00,WUHU216DAVISVP2,2013-06-01 05:25:00,
2013-06-01 01:28:00,70.9,69.1,29.01,WSW,237,9.0,14.0,94,0.00,,,0.00,WUHU216DAVISVP2,2013-06-01 05:28:00,
2013-06-01 01:29:00,70.9,69.1,29.01,SW,236,4.0,15.0,94,0.00,,,0.00,WUHU216DAVISVP2,2013-06-01 05:29:00,
2013-06-01 01:30:00,70.9,69.1,29.01,SSW,193,6.0,15.0,94,0.00,,,0.00,WUHU216DAVISVP2,2013-06-01 05:30:00,
2013-06-01 01:33:00,70.9,69.1,29.01,SSW,202,6.0,15.0,94,0.00,,,0.00,WUHU216DAVISVP2,2013-06-01 05:33:00,
2013-06-01 01:34:00,70.9,69.1,29.01,SSW,193,9.0,15.0,94,0.00,,,0.00,WUHU216DAVISVP2,2013-06-01 05:34:00,
2013-06-01 01:35:00,70.9,69.1,29.00,South,182,12.0,15.0,94,0.00,,,0.00,WUHU216DAVISVP2,2013-06-01 05:35:00,
2013-06-01 01:39:00,70.9,69.1,29.00,South,189,6.0,15.0,94,0.00,,,0.00,WUHU216DAVISVP2,2013-06-01 05:39:00,
2013-06-01 01:40:00,70.9,69.1,29.01,South,174,8.0,15.0,94,0.00,,,0.00,WUHU216DAVISVP2,2013-06-01 05:40:00,
2013-06-01 01:41:00,70.9,69.1,29.00,SW,216,1.0,15.0,94,0.00,,,0.00,WUHU216DAVISVP2,2013-06-01 05:41:00,
2013-06-01 01:44:00,70.8,69.0,29.00,South,183,9.0,15.0,94,0.00,,,0.00,WUHU216DAVISVP2,2013-06-01 05:44:00,
2013-06-01 01:45:00,70.8,69.0,29.01,SSW,201,8.0,15.0,94,0.00,,,0.00,WUHU216DAVISVP2,2013-06-01 05:45:00,
2013-06-01 01:46:00,70.8,69.0,29.01,SSW,197,8.0,15.0,94,0.00,,,0.00,WUHU216DAVISVP2,2013-06-01 05:46:00,
2013-06-01 01:49:00,70.8,69.0,29.01,South,183,6.0,19.0,94,0.00,,,0.00,WUHU216DAVISVP2,2013-06-01 05:49:00,
2013-06-01 01:50:00,70.8,69.0,29.01,South,189,7.0,19.0,94,0.00,,,0.00,WUHU216DAVISVP2,2013-06-01 05:50:00,
2013-06-01 01:51:00,70.8,69.0,29.01,SW,225,11.0,19.0,94,0.00,,,0.00,WUHU216DAVISVP2,2013-06-01 05:51:00,
2013-06-01 01:52:00,70.8,69.0,29.01,South,187,6.0,19.0,94,0.00,,,0.00,WUHU216DAVISVP2,2013-06-01 05:52:00,
2013-06-01 01:54:00,70.8,69.0,29.00,South,185,4.0,19.0,94,0.00,,,0.00,WUHU216DAVISVP2,2013-06-01 05:54:00,
2013-06-01 01:55:00,70.8,69.0,29.00,SW,224,6.0,19.0,94,0.00,,,0.00,WUHU216DAVISVP2,2013-06-01 05:55:00,
2013-06-01 01:56:00,70.8,69.0,29.00,SW,217,4.0,19.0,94,0.00,,,0.00,WUHU216DAVISVP2,2013-06-01 05:56:00,
2013-06-01 01:57:00,70.8,69.0,28.99,South,173,8.0,19.0,94,0.00,,,0.00,WUHU216DAVISVP2,2013-06-01 05:57:00,
2013-06-01 01:59:00,70.8,69.0,29.00,SW,226,5.0,21.0,94,0.00,,,0.00,WUHU216DAVISVP2,2013-06-01 05:59:00,
2013-06-01 02:00:00,70.8,69.0,29.00,South,172,4.0,21.0,94,0.00,,,0.00,WUHU216DAVISVP2,2013-06-01 06:00:00,
2013-06-01 02:01:00,70.8,69.0,29.00,SSW,204,1.0,21.0,94,0.00,,,0.00,WUHU216DAVISVP2,2013-06-01 06:01:00,
2013-06-01 02:02:00,70.8,69.0,29.00,SW,214,2.0,21.0,94,0.00,,,0.00,WUHU216DAVISVP2,2013-06-01 06:02:00,
2013-06-01 02:04:00,70.8,69.0,29.00,SSE,163,5.0,21.0,94,0.00,,,0.00,WUHU216DAVISVP2,2013-06-01 06:04:00,
2013-06-01 02:05:00,70.8,69.0,28.99,SW,214,5.0,21.0,94,0.00,,,0.00,WUHU216DAVISVP2,2013-06-01 06:05:00,
2013-06-01 02:06:00,70.8,69.0,28.99,SW,231,13.0,21.0,94,0.00,,,0.00,WUHU216DAVISVP2,2013-06-01 06:06:00,
2013-06-01 02:07:00,70.8,69.0,28.99,SW,235,9.0,21.0,94,0.00,,,0.00,WUHU216DAVISVP2,2013-06-01 06:07:00,
2013-06-01 02:10:00,70.8,69.0,28.99,SSE,152,10.0,21.0,94,0.00,,,0.00,WUHU216DAVISVP2,2013-06-01 06:10:00,
2013-06-01 02:12:00,70.9,69.1,28.99,South,179,13.0,21.0,94,0.00,,,0.00,WUHU216DAVISVP2,2013-06-01 06:12:00,
2013-06-01 02:13:00,70.9,69.1,28.99,SSW,207,11.0,21.0,94,0.00,,,0.00,WUHU216DAVISVP2,2013-06-01 06:13:00,
2013-06-01 02:15:00,71.0,69.2,29.00,SSW,197,10.0,21.0,94,0.00,,,0.00,WUHU216DAVISVP2,2013-06-01 06:15:00,
2013-06-01 02:17:00,71.0,68.8,29.00,WSW,243,10.0,21.0,93,0.00,,,0.00,WUHU216DAVISVP2,2013-06-01 06:17:00,
2013-06-01 02:18:00,71.0,68.8,29.00,West,280,22.0,22.0,93,0.00,,,0.00,WUHU216DAVISVP2,2013-06-01 06:18:00,
2013-06-01 02:20:00,68.7,65.0,29.00,WNW,291,19.0,40.0,88,0.00,,,0.00,WUHU216DAVISVP2,2013-06-01 06:20:00,
2013-06-01 02:22:00,67.3,63.6,29.05,West,271,18.0,40.0,88,0.00,,,0.00,WUHU216DAVISVP2,2013-06-01 06:22:00,
2013-06-01 02:23:00,66.7,63.3,29.05,WSW,249,16.0,40.0,89,0.00,,,0.00,WUHU216DAVISVP2,2013-06-01 06:23:00,
2013-06-01 02:25:00,66.3,63.9,29.05,SW,235,13.0,40.0,92,0.00,,,0.00,WUHU216DAVISVP2,2013-06-01 06:25:00,
2013-06-01 02:26:00,66.3,63.9,29.05,SW,224,7.0,40.0,92,0.00,,,0.00,WUHU216DAVISVP2,2013-06-01 06:26:00,
2013-06-01 02:27:00,66.3,63.9,29.05,SSW,195,6.0,40.0,92,0.00,,,0.00,WUHU216DAVISVP2,2013-06-01 06:27:00,
2013-06-01 02:28:00,66.2,63.8,29.03,WSW,250,19.0,40.0,92,0.00,,,0.00,WUHU216DAVISVP2,2013-06-01 06:28:00,
2013-06-01 02:31:00,66.2,63.8,29.04,West,259,15.0,40.0,92,0.00,,,0.00,WUHU216DAVISVP2,2013-06-01 06:31:00,
2013-06-01 02:32:00,66.3,63.6,29.04,WSW,237,13.0,40.0,91,0.00,,,0.00,WUHU216DAVISVP2,2013-06-01 06:32:00,
2013-06-01 02:33:00,66.3,63.6,29.04,SW,234,4.0,40.0,91,0.00,,,0.00,WUHU216DAVISVP2,2013-06-01 06:33:00,
2013-06-01 02:34:00,66.2,63.8,29.04,West,279,15.0,40.0,92,0.00,,,0.00,WUHU216DAVISVP2,2013-06-01 06:34:00,
2013-06-01 02:36:00,66.2,63.5,29.04,WSW,241,9.0,40.0,91,0.00,,,0.00,WUHU216DAVISVP2,2013-06-01 06:36:00,
2013-06-01 02:37:00,66.1,63.4,29.03,WSW,250,8.0,33.0,91,0.00,,,0.00,WUHU216DAVISVP2,2013-06-01 06:37:00,
2013-06-01 02:38:00,66.1,63.4,29.03,WSW,256,7.0,33.0,91,0.00,,,0.00,WUHU216DAVISVP2,2013-06-01 06:38:00,
2013-06-01 02:39:00,66.0,63.3,29.02,SW,224,5.0,32.0,91,0.00,,,0.00,WUHU216DAVISVP2,2013-06-01 06:39:00,
2013-06-01 02:41:00,65.9,63.2,29.02,SW,232,5.0,32.0,91,0.00,,,0.00,WUHU216DAVISVP2,2013-06-01 06:41:00,
2013-06-01 02:43:00,65.8,63.4,29.02,WSW,242,6.0,31.0,92,0.00,,,0.00,WUHU216DAVISVP2,2013-06-01 06:43:00,
2013-06-01 02:44:00,65.7,63.3,29.02,WSW,239,6.0,30.0,92,0.00,,,0.00,WUHU216DAVISVP2,2013-06-01 06:44:00,
2013-06-01 02:46:00,65.6,63.2,29.02,SW,235,7.0,30.0,92,0.00,,,0.00,WUHU216DAVISVP2,2013-06-01 06:46:00,
2013-06-01 02:48:00,65.6,63.2,29.02,SSW,206,7.0,23.0,92,0.00,,,0.00,WUHU216DAVISVP2,2013-06-01 06:48:00,
2013-06-01 02:49:00,65.5,63.1,29.02,WSW,245,12.0,23.0,92,0.00,,,0.00,WUHU216DAVISVP2,2013-06-01 06:49:00,
2013-06-01 02:51:00,65.4,63.0,29.03,SSW,213,8.0,23.0,92,0.00,,,0.00,WUHU216DAVISVP2,2013-06-01 06:51:00,
2013-06-01 02:52:00,65.4,63.0,29.03,SW,235,7.0,19.0,92,0.00,,,0.00,WUHU216DAVISVP2,2013-06-01 06:52:00,
2013-06-01 02:53:00,65.3,62.9,29.03,WSW,251,9.0,20.0,92,0.00,,,0.00,WUHU216DAVISVP2,2013-06-01 06:53:00,
2013-06-01 02:54:00,65.3,62.9,29.03,WSW,243,11.0,20.0,92,0.00,,,0.00,WUHU216DAVISVP2,2013-06-01 06:54:00,
2013-06-01 02:56:00,65.2,63.1,29.02,WSW,247,6.0,20.0,93,0.00,,,0.00,WUHU216DAVISVP2,2013-06-01 06:56:00,
2013-06-01 02:57:00,65.2,63.1,29.02,West,264,5.0,20.0,93,0.00,,,0.00,WUHU216DAVISVP2,2013-06-01 06:57:00,
2013-06-01 02:58:00,65.2,63.1,29.01,WSW,238,10.0,20.0,93,0.00,,,0.00,WUHU216DAVISVP2,2013-06-01 06:58:00,
2013-06-01 02:59:00,65.1,63.0,29.01,West,264,5.0,20.0,93,0.00,,,0.00,WUHU216DAVISVP2,2013-06-01 06:59:00,
2013-06-01 03:00:00,65.1,63.0,29.01,West,264,5.0,20.0,93,0.00,,,0.00,WUHU216DAVISVP2,2013-06-01 07:00:00,
2013-06-01 03:02:00,65.1,63.0,29.01,WSW,238,14.0,20.0,93,0.00,,,0.00,WUHU216DAVISVP2,2013-06-01 07:02:00,
2013-06-01 03:03:00,65.0,62.9,29.01,SSW,211,4.0,20.0,93,0.00,,,0.00,WUHU216DAVISVP2,2013-06-01 07:03:00,
2013-06-01 03:05:00,65.0,62.9,29.01,SW,220,8.0,20.0,93,0.00,,,0.00,WUHU216DAVISVP2,2013-06-01 07:05:00,
2013-06-01 03:06:00,65.0,62.9,29.01,West,269,7.0,20.0,93,0.00,,,0.00,WUHU216DAVISVP2,2013-06-01 07:06:00,
2013-06-01 03:07:00,65.0,62.9,29.01,West,262,6.0,20.0,93,0.00,,,0.00,WUHU216DAVISVP2,2013-06-01 07:07:00,
2013-06-01 03:08:00,65.0,62.9,29.01,SW,226,9.0,20.0,93,0.00,,,0.00,WUHU216DAVISVP2,2013-06-01 07:08:00,
2013-06-01 03:10:00,64.9,62.8,29.02,West,262,5.0,20.0,93,0.00,,,0.00,WUHU216DAVISVP2,2013-06-01 07:10:00,
2013-06-01 03:11:00,64.9,62.8,29.01,West,275,8.0,20.0,93,0.00,,,0.00,WUHU216DAVISVP2,2013-06-01 07:11:00,
2013-06-01 03:12:00,64.9,62.8,29.01,West,277,5.0,16.0,93,0.00,,,0.00,WUHU216DAVISVP2,2013-06-01 07:12:00,
2013-06-01 03:14:00,64.9,62.8,29.01,WNW,297,7.0,16.0,93,0.00,,,0.00,WUHU216DAVISVP2,2013-06-01 07:14:00,
2013-06-01 03:15:00,64.9,62.8,29.01,WSW,243,10.0,16.0,93,0.00,,,0.00,WUHU216DAVISVP2,2013-06-01 07:15:00,
2013-06-01 03:16:00,64.9,62.8,29.01,WSW,239,10.0,16.0,93,0.00,,,0.00,WUHU216DAVISVP2,2013-06-01 07:16:00,
2013-06-01 03:17:00,64.9,62.8,29.01,WSW,243,10.0,16.0,93,0.00,,,0.00,WUHU216DAVISVP2,2013-06-01 07:17:00,
2013-06-01 03:19:00,65.0,62.9,29.01,SW,231,9.0,16.0,93,0.00,,,0.00,WUHU216DAVISVP2,2013-06-01 07:19:00,
2013-06-01 03:20:00,65.0,62.9,29.01,WSW,258,8.0,16.0,93,0.00,,,0.00,WUHU216DAVISVP2,2013-06-01 07:20:00,
2013-06-01 03:21:00,65.0,62.9,29.00,WSW,245,6.0,15.0,93,0.00,,,0.00,WUHU216DAVISVP2,2013-06-01 07:21:00,
2013-06-01 03:22:00,65.0,62.9,29.01,WSW,252,4.0,15.0,93,0.00,,,0.00,WUHU216DAVISVP2,2013-06-01 07:22:00,
2013-06-01 03:23:00,65.0,62.9,29.01,WSW,252,3.0,15.0,93,0.00,,,0.00,WUHU216DAVISVP2,2013-06-01 07:23:00,
2013-06-01 03:24:00,65.0,62.9,29.01,WSW,247,8.0,13.0,93,0.00,,,0.00,WUHU216DAVISVP2,2013-06-01 07:24:00,
2013-06-01 03:25:00,64.9,62.8,29.01,West,266,6.0,13.0,93,0.00,,,0.00,WUHU216DAVISVP2,2013-06-01 07:25:00,
2013-06-01 03:26:00,65.0,62.9,29.01,SW,228,4.0,13.0,93,0.00,,,0.00,WUHU216DAVISVP2,2013-06-01 07:26:00,
2013-06-01 03:27:00,65.0,62.9,29.01,West,266,2.0,13.0,93,0.00,,,0.00,WUHU216DAVISVP2,2013-06-01 07:27:00,
2013-06-01 03:28:00,65.0,62.9,29.01,SSW,204,3.0,13.0,93,0.00,,,0.00,WUHU216DAVISVP2,2013-06-01 07:28:00,
2013-06-01 03:31:00,65.0,62.9,29.02,SW,228,7.0,13.0,93,0.00,,,0.00,WUHU216DAVISVP2,2013-06-01 07:31:00,
2013-06-01 03:32:00,65.0,63.2,29.02,WSW,245,5.0,14.0,94,0.00,,,0.00,WUHU216DAVISVP2,2013-06-01 07:32:00,
2013-06-01 03:33:00,65.0,63.2,29.02,WSW,241,10.0,14.0,94,0.00,,,0.00,WUHU216DAVISVP2,2013-06-01 07:33:00,
2013-06-01 03:34:00,65.0,63.2,29.02,WSW,256,8.0,14.0,94,0.00,,,0.00,WUHU216DAVISVP2,2013-06-01 07:34:00,
2013-06-01 03:36:00,65.0,63.2,29.02,WSW,237,5.0,14.0,94,0.00,,,0.00,WUHU216DAVISVP2,2013-06-01 07:36:00,
2013-06-01 03:37:00,65.0,63.2,29.02,WSW,246,5.0,14.0,94,0.00,,,0.00,WUHU216DAVISVP2,2013-06-01 07:37:00,
2013-06-01 03:38:00,65.0,63.2,29.02,South,187,2.0,14.0,94,0.00,,,0.00,WUHU216DAVISVP2,2013-06-01 07:38:00,
2013-06-01 03:39:00,64.9,63.1,29.02,South,188,2.0,14.0,94,0.00,,,0.00,WUHU216DAVISVP2,2013-06-01 07:39:00,
2013-06-01 03:41:00,64.9,63.1,29.03,SSW,198,1.0,14.0,94,0.00,,,0.00,WUHU216DAVISVP2,2013-06-01 07:41:00,
2013-06-01 03:42:00,64.9,63.1,29.03,SSW,201,1.0,14.0,94,0.00,,,0.00,WUHU216DAVISVP2,2013-06-01 07:42:00,
2013-06-01 03:43:00,64.9,63.1,29.03,SW,220,2.0,14.0,94,0.00,,,0.00,WUHU216DAVISVP2,2013-06-01 07:43:00,
2013-06-01 03:45:00,64.9,63.1,29.03,SSW,202,2.0,14.0,94,0.00,,,0.00,WUHU216DAVISVP2,2013-06-01 07:45:00,
2013-06-01 03:47:00,64.9,63.1,29.03,SW,224,6.0,14.0,94,0.00,,,0.00,WUHU216DAVISVP2,2013-06-01 07:47:00,
2013-06-01 03:48:00,64.9,63.1,29.03,WSW,238,2.0,14.0,94,0.00,,,0.00,WUHU216DAVISVP2,2013-06-01 07:48:00,
2013-06-01 03:50:00,64.9,63.1,29.03,WSW,241,4.0,14.0,94,0.00,,,0.00,WUHU216DAVISVP2,2013-06-01 07:50:00,
2013-06-01 03:52:00,64.8,63.0,29.03,SW,228,1.0,11.0,94,0.00,,,0.00,WUHU216DAVISVP2,2013-06-01 07:52:00,
2013-06-01 03:53:00,64.9,63.1,29.03,SW,236,1.0,10.0,94,0.00,,,0.00,WUHU216DAVISVP2,2013-06-01 07:53:00,
2013-06-01 03:55:00,64.9,63.1,29.03,SW,235,5.0,10.0,94,0.00,,,0.00,WUHU216DAVISVP2,2013-06-01 07:55:00,
2013-06-01 03:57:00,64.9,63.1,29.03,SSW,209,1.0,10.0,94,0.00,,,0.00,WUHU216DAVISVP2,2013-06-01 07:57:00,
2013-06-01 03:58:00,64.9,63.1,29.03,SW,214,4.0,10.0,94,0.00,,,0.00,WUHU216DAVISVP2,2013-06-01 07:58:00,
2013-06-01 03:59:00,64.9,63.1,29.03,WSW,239,9.0,10.0,94,0.00,,,0.00,WUHU216DAVISVP2,2013-06-01 07:59:00,
2013-06-01 04:01:00,64.9,63.1,29.03,West,260,7.0,10.0,94,0.00,,,0.00,WUHU216DAVISVP2,2013-06-01 08:01:00,
2013-06-01 04:02:00,64.9,63.1,29.02,WSW,258,5.0,10.0,94,0.00,,,0.00,WUHU216DAVISVP2,2013-06-01 08:02:00,
2013-06-01 04:03:00,64.9,63.1,29.02,WSW,249,6.0,9.0,94,0.00,,,0.00,WUHU216DAVISVP2,2013-06-01 08:03:00,
2013-06-01 04:04:00,64.9,63.1,29.02,WSW,249,4.0,9.0,94,0.00,,,0.00,WUHU216DAVISVP2,2013-06-01 08:04:00,
2013-06-01 04:06:00,64.9,63.1,29.02,WSW,249,5.0,9.0,94,0.00,,,0.00,WUHU216DAVISVP2,2013-06-01 08:06:00,
2013-06-01 04:07:00,64.9,63.4,29.01,WSW,249,2.0,9.0,95,0.00,,,0.00,WUHU216DAVISVP2,2013-06-01 08:07:00,
2013-06-01 04:08:00,64.9,63.1,29.01,West,264,4.0,9.0,94,0.00,,,0.00,WUHU216DAVISVP2,2013-06-01 08:08:00,
2013-06-01 04:09:00,64.9,63.1,29.01,West,264,5.0,9.0,94,0.00,,,0.00,WUHU216DAVISVP2,2013-06-01 08:09:00,
2013-06-01 04:11:00,64.9,63.1,29.00,West,272,5.0,9.0,94,0.00,,,0.00,WUHU216DAVISVP2,2013-06-01 08:11:00,
2013-06-01 04:13:00,64.8,63.0,29.01,West,272,1.0,9.0,94,0.00,,,0.00,WUHU216DAVISVP2,2013-06-01 08:13:00,
2013-06-01 04:14:00,64.8,63.0,29.01,West,272,2.0,9.0,94,0.00,,,0.00,WUHU216DAVISVP2,2013-06-01 08:14:00,
2013-06-01 04:16:00,64.8,63.0,29.01,SW,220,2.0,9.0,94,0.00,,,0.00,WUHU216DAVISVP2,2013-06-01 08:16:00,
2013-06-01 04:18:00,64.8,63.0,29.02,South,191,3.0,9.0,94,0.00,,,0.00,WUHU216DAVISVP2,2013-06-01 08:18:00,
2013-06-01 04:19:00,64.8,63.0,29.02,SSW,206,6.0,7.0,94,0.00,,,0.00,WUHU216DAVISVP2,2013-06-01 08:19:00,
2013-06-01 04:21:00,64.8,63.3,29.01,SSW,206,0.0,7.0,95,0.00,,,0.00,WUHU216DAVISVP2,2013-06-01 08:21:00,
2013-06-01 04:23:00,64.8,63.3,29.01,SSW,206,0.0,7.0,95,0.00,,,0.00,WUHU216DAVISVP2,2013-06-01 08:23:00,
2013-06-01 04:24:00,64.8,63.3,29.01,SSW,206,0.0,7.0,95,0.00,,,0.00,WUHU216DAVISVP2,2013-06-01 08:24:00,
2013-06-01 04:26:00,64.7,63.2,29.02,SSW,206,0.0,7.0,95,0.00,,,0.00,WUHU216DAVISVP2,2013-06-01 08:26:00,
2013-06-01 04:28:00,64.7,62.9,29.01,SSW,206,1.0,7.0,94,0.00,,,0.00,WUHU216DAVISVP2,2013-06-01 08:28:00,
2013-06-01 04:29:00,64.7,62.9,29.01,SSW,206,1.0,7.0,94,0.00,,,0.00,WUHU216DAVISVP2,2013-06-01 08:29:00,
2013-06-01 04:32:00,64.7,62.9,29.01,SSW,206,1.0,7.0,94,0.00,,,0.00,WUHU216DAVISVP2,2013-06-01 08:32:00,
2013-06-01 04:34:00,64.7,62.9,29.02,SSW,206,1.0,7.0,94,0.00,,,0.00,WUHU216DAVISVP2,2013-06-01 08:34:00,
2013-06-01 04:35:00,64.7,62.9,29.02,SSW,206,4.0,7.0,94,0.00,,,0.00,WUHU216DAVISVP2,2013-06-01 08:35:00,
2013-06-01 04:37:00,64.7,63.2,29.03,SW,233,5.0,7.0,95,0.00,,,0.00,WUHU216DAVISVP2,2013-06-01 08:37:00,
2013-06-01 04:39:00,64.7,63.2,29.03,South,186,1.0,7.0,95,0.00,,,0.00,WUHU216DAVISVP2,2013-06-01 08:39:00,
2013-06-01 04:40:00,64.7,63.2,29.03,SW,218,0.0,7.0,95,0.00,,,0.00,WUHU216DAVISVP2,2013-06-01 08:40:00,
2013-06-01 04:42:00,64.7,63.2,29.03,SW,220,1.0,7.0,95,0.00,,,0.00,WUHU216DAVISVP2,2013-06-01 08:42:00,
2013-06-01 04:44:00,64.6,63.1,29.03,South,190,1.0,7.0,95,0.00,,,0.00,WUHU216DAVISVP2,2013-06-01 08:44:00,
2013-06-01 04:45:00,64.6,63.1,29.03,SSW,197,1.0,7.0,95,0.00,,,0.00,WUHU216DAVISVP2,2013-06-01 08:45:00,
2013-06-01 04:47:00,64.6,63.1,29.03,SW,223,4.0,7.0,95,0.00,,,0.00,WUHU216DAVISVP2,2013-06-01 08:47:00,
2013-06-01 04:49:00,64.5,63.0,29.03,SW,233,2.0,7.0,95,0.00,,,0.00,WUHU216DAVISVP2,2013-06-01 08:49:00,
2013-06-01 04:50:00,64.5,63.0,29.03,SSW,212,1.0,8.0,95,0.00,,,0.00,WUHU216DAVISVP2,2013-06-01 08:50:00,
2013-06-01 04:52:00,64.5,63.0,29.03,WSW,239,7.0,9.0,95,0.00,,,0.00,WUHU216DAVISVP2,2013-06-01 08:52:00,
2013-06-01 04:54:00,64.5,63.0,29.03,WSW,240,4.0,9.0,95,0.00,,,0.00,WUHU216DAVISVP2,2013-06-01 08:54:00,
2013-06-01 04:55:00,64.5,63.0,29.03,WSW,251,8.0,11.0,95,0.00,,,0.00,WUHU216DAVISVP2,2013-06-01 08:55:00,
2013-06-01 04:57:00,64.5,63.0,29.03,WSW,257,6.0,13.0,95,0.00,,,0.00,WUHU216DAVISVP2,2013-06-01 08:57:00,
2013-06-01 05:00:00,64.5,63.0,29.02,SW,229,2.0,13.0,95,0.00,,,0.00,WUHU216DAVISVP2,2013-06-01 09:00:00,
2013-06-01 05:01:00,64.5,63.0,29.02,West,264,8.0,13.0,95,0.00,,,0.00,WUHU216DAVISVP2,2013-06-01 09:01:00,
2013-06-01 05:02:00,64.5,63.0,29.02,WSW,256,6.0,13.0,95,0.00,,,0.00,WUHU216DAVISVP2,2013-06-01 09:02:00,
2013-06-01 05:05:00,64.5,63.0,29.02,SW,226,5.0,13.0,95,0.00,,,0.00,WUHU216DAVISVP2,2013-06-01 09:05:00,
2013-06-01 05:06:00,64.5,63.0,29.02,SW,215,5.0,13.0,95,0.00,,,0.00,WUHU216DAVISVP2,2013-06-01 09:06:00,
2013-06-01 05:07:00,64.5,63.0,29.02,SW,231,5.0,13.0,95,0.00,,,0.00,WUHU216DAVISVP2,2013-06-01 09:07:00,
2013-06-01 05:10:00,64.5,63.0,29.02,SW,233,0.0,13.0,95,0.00,,,0.00,WUHU216DAVISVP2,2013-06-01 09:10:00,
2013-06-01 05:11:00,64.5,63.0,29.02,SW,233,4.0,13.0,95,0.00,,,0.00,WUHU216DAVISVP2,2013-06-01 09:11:00,
2013-06-01 05:13:00,64.5,63.0,29.02,SW,216,3.0,13.0,95,0.00,,,0.00,WUHU216DAVISVP2,2013-06-01 09:13:00,
2013-06-01 05:15:00,64.5,63.0,29.02,WSW,251,2.0,10.0,95,0.00,,,0.00,WUHU216DAVISVP2,2013-06-01 09:15:00,
2013-06-01 05:16:00,64.5,63.0,29.02,WSW,244,6.0,10.0,95,0.00,,,0.00,WUHU216DAVISVP2,2013-06-01 09:16:00,
2013-06-01 05:17:00,64.5,63.0,29.02,SSW,213,6.0,10.0,95,0.00,,,0.00,WUHU216DAVISVP2,2013-06-01 09:17:00,
2013-06-01 05:18:00,64.5,63.0,29.02,WSW,243,7.0,11.0,95,0.00,,,0.00,WUHU216DAVISVP2,2013-06-01 09:18:00,
2013-06-01 05:20:00,64.5,63.0,29.01,WSW,256,2.0,11.0,95,0.00,,,0.00,WUHU216DAVISVP2,2013-06-01 09:20:00,
2013-06-01 05:21:00,64.5,63.0,29.01,WSW,256,0.0,11.0,95,0.00,,,0.00,WUHU216DAVISVP2,2013-06-01 09:21:00,
2013-06-01 05:22:00,64.5,63.0,29.01,WSW,256,0.0,11.0,95,0.00,,,0.00,WUHU216DAVISVP2,2013-06-01 09:22:00,
2013-06-01 05:23:00,64.5,63.0,29.01,WSW,254,2.0,11.0,95,0.00,,,0.00,WUHU216DAVISVP2,2013-06-01 09:23:00,
2013-06-01 05:26:00,64.4,62.9,29.01,WSW,254,2.0,11.0,95,0.00,,,0.00,WUHU216DAVISVP2,2013-06-01 09:26:00,
2013-06-01 05:27:00,64.4,62.9,29.01,South,191,1.0,11.0,95,0.00,,,0.00,WUHU216DAVISVP2,2013-06-01 09:27:00,
2013-06-01 05:28:00,64.4,62.9,29.01,SSW,192,0.0,11.0,95,0.00,,,0.00,WUHU216DAVISVP2,2013-06-01 09:28:00,
2013-06-01 05:31:00,64.3,62.8,29.00,SSW,192,1.0,11.0,95,0.00,,,0.00,WUHU216DAVISVP2,2013-06-01 09:31:00,
2013-06-01 05:32:00,64.3,62.8,29.01,SSW,192,2.0,11.0,95,0.00,,,0.00,WUHU216DAVISVP2,2013-06-01 09:32:00,
2013-06-01 05:33:00,64.3,62.8,29.01,SSW,192,1.0,11.0,95,0.00,,,0.00,WUHU216DAVISVP2,2013-06-01 09:33:00,
2013-06-01 05:36:00,64.3,62.8,29.01,South,175,0.0,11.0,95,0.00,,,0.00,WUHU216DAVISVP2,2013-06-01 09:36:00,
2013-06-01 05:37:00,64.3,62.8,29.01,South,178,4.0,7.0,95,0.00,,,0.00,WUHU216DAVISVP2,2013-06-01 09:37:00,
2013-06-01 05:39:00,64.3,62.8,29.01,SSW,193,0.0,7.0,95,0.00,,,0.00,WUHU216DAVISVP2,2013-06-01 09:39:00,
2013-06-01 05:41:00,64.3,62.8,29.02,SSW,201,1.0,7.0,95,0.00,,,0.00,WUHU216DAVISVP2,2013-06-01 09:41:00,
2013-06-01 05:42:00,64.3,62.8,29.02,SSW,204,2.0,7.0,95,0.00,,,0.00,WUHU216DAVISVP2,2013-06-01 09:42:00,
2013-06-01 05:43:00,64.3,62.8,29.02,SSW,205,1.0,8.0,95,0.00,,,0.00,WUHU216DAVISVP2,2013-06-01 09:43:00,
2013-06-01 05:44:00,64.3,62.8,29.02,SSW,200,1.0,8.0,95,0.00,,,0.00,WUHU216DAVISVP2,2013-06-01 09:44:00,
2013-06-01 05:46:00,64.3,62.8,29.01,SSW,206,3.0,9.0,95,0.00,,,0.00,WUHU216DAVISVP2,2013-06-01 09:46:00,
2013-06-01 05:47:00,64.2,62.7,29.01,SSW,193,6.0,9.0,95,0.00,,,0.00,WUHU216DAVISVP2,2013-06-01 09:47:00,
2013-06-01 05:48:00,64.2,62.7,29.01,South,189,1.0,9.0,95,0.00,,,0.00,WUHU216DAVISVP2,2013-06-01 09:48:00,
2013-06-01 05:49:00,64.2,62.7,29.01,South,189,2.0,9.0,95,0.00,,,0.00,WUHU216DAVISVP2,2013-06-01 09:49:00,
2013-06-01 05:51:00,64.2,62.7,29.02,South,185,6.0,9.0,95,0.00,,,0.00,WUHU216DAVISVP2,2013-06-01 09:51:00,
2013-06-01 05:52:00,64.2,62.7,29.02,SSW,196,1.0,9.0,95,0.00,,,0.00,WUHU216DAVISVP2,2013-06-01 09:52:00,
2013-06-01 05:54:00,64.2,62.7,29.02,SSW,204,4.0,9.0,95,0.00,,,0.00,WUHU216DAVISVP2,2013-06-01 09:54:00,
2013-06-01 05:57:00,64.2,62.7,29.02,SW,218,1.0,9.0,95,0.00,,,0.00,WUHU216DAVISVP2,2013-06-01 09:57:00,
2013-06-01 05:58:00,64.2,62.7,29.02,South,183,0.0,9.0,95,0.00,,,0.00,WUHU216DAVISVP2,2013-06-01 09:58:00,
2013-06-01 05:59:00,64.2,62.7,29.02,SSW,197,3.0,9.0,95,0.00,,,0.00,WUHU216DAVISVP2,2013-06-01 09:59:00,
2013-06-01 06:00:00,64.2,62.7,29.02,SSW,197,5.0,9.0,95,0.00,,,0.00,WUHU216DAVISVP2,2013-06-01 10:00:00,
2013-06-01 06:02:00,64.1,62.6,29.02,South,187,7.0,9.0,95,0.00,,,0.00,WUHU216DAVISVP2,2013-06-01 10:02:00,
2013-06-01 06:03:00,64.1,62.6,29.02,South,187,3.0,9.0,95,0.00,,,0.00,WUHU216DAVISVP2,2013-06-01 10:03:00,
2013-06-01 06:04:00,64.1,62.6,29.02,SSW,194,2.0,8.0,95,0.00,,,0.00,WUHU216DAVISVP2,2013-06-01 10:04:00,
2013-06-01 06:05:00,64.1,62.6,29.02,South,188,2.0,8.0,95,0.00,,,0.00,WUHU216DAVISVP2,2013-06-01 10:05:00,
2013-06-01 06:07:00,64.1,62.6,29.02,SSW,208,0.0,8.0,95,0.00,,,0.00,WUHU216DAVISVP2,2013-06-01 10:07:00,
2013-06-01 06:08:00,64.1,62.6,29.02,SW,224,6.0,10.0,95,0.00,,,0.00,WUHU216DAVISVP2,2013-06-01 10:08:00,
2013-06-01 06:09:00,64.1,62.6,29.02,SSW,208,6.0,11.0,95,0.00,,,0.00,WUHU216DAVISVP2,2013-06-01 10:09:00,
2013-06-01 06:11:00,64.1,62.6,29.02,SSW,203,1.0,11.0,95,0.00,,,0.00,WUHU216DAVISVP2,2013-06-01 10:11:00,
2013-06-01 06:12:00,64.1,62.6,29.02,SSW,201,0.0,11.0,95,0.00,,,0.00,WUHU216DAVISVP2,2013-06-01 10:12:00,
2013-06-01 06:13:00,64.1,62.6,29.03,SW,214,5.0,11.0,95,0.00,,,0.00,WUHU216DAVISVP2,2013-06-01 10:13:00,
2013-06-01 06:15:00,64.0,62.5,29.02,SSW,204,5.0,11.0,95,0.00,,,0.00,WUHU216DAVISVP2,2013-06-01 10:15:00,
2013-06-01 06:16:00,64.0,62.5,29.02,SW,219,1.0,11.0,95,0.00,,,0.00,WUHU216DAVISVP2,2013-06-01 10:16:00,
2013-06-01 06:17:00,64.0,62.5,29.02,SSW,193,6.0,11.0,95,0.00,,,0.00,WUHU216DAVISVP2,2013-06-01 10:17:00,
2013-06-01 06:18:00,64.0,62.5,29.02,SSW,195,5.0,11.0,95,0.00,,,0.00,WUHU216DAVISVP2,2013-06-01 10:18:00,
2013-06-01 06:19:00,64.0,62.5,29.02,SSW,195,2.0,11.0,95,0.00,,,0.00,WUHU216DAVISVP2,2013-06-01 10:19:00,
2013-06-01 06:20:00,64.0,62.5,29.02,SSW,195,1.0,11.0,95,0.00,,,0.00,WUHU216DAVISVP2,2013-06-01 10:20:00,
2013-06-01 06:21:00,64.0,62.5,29.02,South,191,3.0,11.0,95,0.00,,,0.00,WUHU216DAVISVP2,2013-06-01 10:21:00,
2013-06-01 06:22:00,64.0,62.5,29.02,SSW,200,1.0,11.0,95,0.00,,,0.00,WUHU216DAVISVP2,2013-06-01 10:22:00,
2013-06-01 06:23:00,64.0,62.5,29.02,South,183,2.0,12.0,95,0.00,,,0.00,WUHU216DAVISVP2,2013-06-01 10:23:00,
2013-06-01 06:24:00,64.0,62.5,29.02,SSW,205,3.0,12.0,95,0.00,,,0.00,WUHU216DAVISVP2,2013-06-01 10:24:00,
2013-06-01 06:25:00,64.0,62.5,29.02,SSE,163,6.0,12.0,95,0.00,,,0.00,WUHU216DAVISVP2,2013-06-01 10:25:00,
2013-06-01 06:27:00,64.0,62.5,29.02,South,173,5.0,12.0,95,0.00,,,0.00,WUHU216DAVISVP2,2013-06-01 10:27:00,
2013-06-01 06:29:00,63.9,62.4,29.02,SSE,159,5.0,12.0,95,0.00,,,0.00,WUHU216DAVISVP2,2013-06-01 10:29:00,
2013-06-01 06:31:00,63.9,62.4,29.01,SSE,156,1.0,12.0,95,0.00,,,0.00,WUHU216DAVISVP2,2013-06-01 10:31:00,
2013-06-01 06:32:00,63.9,62.4,29.01,SSE,166,6.0,12.0,95,0.00,,,0.00,WUHU216DAVISVP2,2013-06-01 10:32:00,
2013-06-01 06:34:00,63.9,62.4,29.01,SSE,158,5.0,12.0,95,0.00,,,0.00,WUHU216DAVISVP2,2013-06-01 10:34:00,
2013-06-01 06:35:00,63.9,62.4,29.00,SSE,164,8.0,12.0,95,0.00,,,0.00,WUHU216DAVISVP2,2013-06-01 10:35:00,
2013-06-01 06:36:00,63.8,62.3,29.00,SSE,154,6.0,12.0,95,0.00,,,0.00,WUHU216DAVISVP2,2013-06-01 10:36:00,
2013-06-01 06:37:00,63.8,62.3,29.00,South,169,7.0,12.0,95,0.00,,,0.00,WUHU216DAVISVP2,2013-06-01 10:37:00,
2013-06-01 06:40:00,63.8,62.3,29.00,SSW,203,1.0,12.0,95,0.00,,,0.00,WUHU216DAVISVP2,2013-06-01 10:40:00,
2013-06-01 06:41:00,63.8,62.3,29.01,SSW,209,1.0,12.0,95,0.00,,,0.00,WUHU216DAVISVP2,2013-06-01 10:41:00,
2013-06-01 06:42:00,63.8,62.3,29.01,SSW,194,2.0,11.0,95,0.00,,,0.00,WUHU216DAVISVP2,2013-06-01 10:42:00,
2013-06-01 06:43:00,63.8,62.3,29.01,SSW,195,4.0,11.0,95,0.00,,,0.00,WUHU216DAVISVP2,2013-06-01 10:43:00,
2013-06-01 06:45:00,63.9,62.4,29.02,SSW,206,4.0,11.0,95,0.00,,,0.00,WUHU216DAVISVP2,2013-06-01 10:45:00,
2013-06-01 06:46:00,63.9,62.4,29.02,SW,231,2.0,11.0,95,0.00,,,0.00,WUHU216DAVISVP2,2013-06-01 10:46:00,
2013-06-01 06:47:00,63.9,62.4,29.02,SW,216,0.0,11.0,95,0.00,,,0.00,WUHU216DAVISVP2,2013-06-01 10:47:00,
2013-06-01 06:48:00,63.9,62.4,29.01,SSW,206,4.0,11.0,95,0.00,,,0.00,WUHU216DAVISVP2,2013-06-01 10:48:00,
2013-06-01 06:50:00,63.8,62.3,29.01,South,179,4.0,11.0,95,0.00,,,0.00,WUHU216DAVISVP2,2013-06-01 10:50:00,
2013-06-01 06:51:00,63.9,62.4,29.01,South,185,8.0,11.0,95,0.00,,,0.00,WUHU216DAVISVP2,2013-06-01 10:51:00,
2013-06-01 06:53:00,63.8,62.3,29.00,South,180,7.0,10.0,95,0.00,,,0.00,WUHU216DAVISVP2,2013-06-01 10:53:00,
2013-06-01 06:55:00,63.8,62.3,29.00,South,171,1.0,8.0,95,0.00,,,0.00,WUHU216DAVISVP2,2013-06-01 10:55:00,
2013-06-01 06:57:00,63.8,62.3,29.00,SSE,160,2.0,8.0,95,0.00,,,0.00,WUHU216DAVISVP2,2013-06-01 10:57:00,
2013-06-01 06:58:00,63.8,62.3,29.00,SSE,157,5.0,8.0,95,0.00,,,0.00,WUHU216DAVISVP2,2013-06-01 10:58:00,
2013-06-01 07:00:00,63.8,62.3,29.00,SSE,157,4.0,8.0,95,0.00,,,0.00,WUHU216DAVISVP2,2013-06-01 11:00:00,
2013-06-01 07:01:00,63.8,62.3,29.00,SSE,157,2.0,8.0,95,0.00,,,0.00,WUHU216DAVISVP2,2013-06-01 11:01:00,
2013-06-01 07:02:00,63.8,62.3,29.00,SSE,158,3.0,8.0,95,0.00,,,0.00,WUHU216DAVISVP2,2013-06-01 11:02:00,
2013-06-01 07:03:00,63.8,62.3,29.00,SSE,149,7.0,8.0,95,0.00,,,0.00,WUHU216DAVISVP2,2013-06-01 11:03:00,
2013-06-01 07:06:00,63.8,62.3,29.00,SSE,164,0.0,8.0,95,0.00,,,0.00,WUHU216DAVISVP2,2013-06-01 11:06:00,
2013-06-01 07:07:00,63.8,62.3,28.99,South,183,5.0,8.0,95,0.00,,,0.00,WUHU216DAVISVP2,2013-06-01 11:07:00,
2013-06-01 07:08:00,63.8,62.3,28.99,South,177,6.0,8.0,95,0.00,,,0.00,WUHU216DAVISVP2,2013-06-01 11:08:00,
2013-06-01 07:11:00,63.8,62.3,28.98,SSE,149,5.0,11.0,95,0.00,,,0.00,WUHU216DAVISVP2,2013-06-01 11:11:00,
2013-06-01 07:12:00,63.7,62.2,28.97,SE,143,1.0,11.0,95,0.00,,,0.00,WUHU216DAVISVP2,2013-06-01 11:12:00,
2013-06-01 07:13:00,63.7,62.2,28.97,SSE,154,6.0,11.0,95,0.00,,,0.00,WUHU216DAVISVP2,2013-06-01 11:13:00,
2013-06-01 07:14:00,63.7,62.2,28.97,SSE,152,4.0,11.0,95,0.00,,,0.00,WUHU216DAVISVP2,2013-06-01 11:14:00,
2013-06-01 07:16:00,63.7,62.2,28.97,SSE,152,4.0,11.0,95,0.00,,,0.00,WUHU216DAVISVP2,2013-06-01 11:16:00,
2013-06-01 07:17:00,63.7,62.2,28.98,SW,215,5.0,11.0,95,0.00,,,0.00,WUHU216DAVISVP2,2013-06-01 11:17:00,
2013-06-01 07:19:00,63.7,62.2,28.98,SSE,164,1.0,11.0,95,0.00,,,0.00,WUHU216DAVISVP2,2013-06-01 11:19:00,
2013-06-01 07:21:00,63.7,62.2,28.98,South,169,4.0,11.0,95,0.00,,,0.00,WUHU216DAVISVP2,2013-06-01 11:21:00,
2013-06-01 07:22:00,63.7,62.2,28.98,SE,137,2.0,11.0,95,0.00,,,0.00,WUHU216DAVISVP2,2013-06-01 11:22:00,
2013-06-01 07:24:00,63.6,62.1,28.97,SSE,157,5.0,11.0,95,0.00,,,0.00,WUHU216DAVISVP2,2013-06-01 11:24:00,
2013-06-01 07:26:00,63.7,62.2,28.98,SSE,157,1.0,11.0,95,0.00,,,0.00,WUHU216DAVISVP2,2013-06-01 11:26:00,
2013-06-01 07:27:00,63.6,62.1,28.98,SSE,157,0.0,11.0,95,0.00,,,0.00,WUHU216DAVISVP2,2013-06-01 11:27:00,
2013-06-01 07:29:00,63.7,62.2,28.98,SSE,165,2.0,10.0,95,0.00,,,0.00,WUHU216DAVISVP2,2013-06-01 11:29:00,
2013-06-01 07:30:00,63.7,62.2,28.98,SSE,164,5.0,10.0,95,0.00,,,0.00,WUHU216DAVISVP2,2013-06-01 11:30:00,
2013-06-01 07:31:00,63.7,62.5,28.98,South,177,2.0,10.0,96,0.00,,,0.00,WUHU216DAVISVP2,2013-06-01 11:31:00,
2013-06-01 07:32:00,63.7,62.5,28.98,SSE,162,5.0,8.0,96,0.00,,,0.00,WUHU216DAVISVP2,2013-06-01 11:32:00,
2013-06-01 07:33:00,63.7,62.5,28.98,SSE,162,1.0,8.0,96,0.00,,,0.00,WUHU216DAVISVP2,2013-06-01 11:33:00,
2013-06-01 07:34:00,63.7,62.5,28.98,SSE,162,3.0,8.0,96,0.00,,,0.00,WUHU216DAVISVP2,2013-06-01 11:34:00,
2013-06-01 07:35:00,63.7,62.5,28.98,SSW,206,7.0,11.0,96,0.00,,,0.00,WUHU216DAVISVP2,2013-06-01 11:35:00,
2013-06-01 07:37:00,63.7,62.5,28.98,South,170,6.0,11.0,96,0.00,,,0.00,WUHU216DAVISVP2,2013-06-01 11:37:00,
2013-06-01 07:38:00,63.7,62.5,28.98,South,177,7.0,11.0,96,0.00,,,0.00,WUHU216DAVISVP2,2013-06-01 11:38:00,
2013-06-01 07:40:00,63.7,62.5,28.98,SSE,147,4.0,11.0,96,0.00,,,0.00,WUHU216DAVISVP2,2013-06-01 11:40:00,
2013-06-01 07:42:00,63.7,62.5,28.98,South,170,4.0,11.0,96,0.00,,,0.00,WUHU216DAVISVP2,2013-06-01 11:42:00,
2013-06-01 07:43:00,63.7,62.5,28.98,SSW,192,2.0,11.0,96,0.00,,,0.00,WUHU216DAVISVP2,2013-06-01 11:43:00,
2013-06-01 07:45:00,63.7,62.5,28.98,SW,218,6.0,11.0,96,0.00,,,0.00,WUHU216DAVISVP2,2013-06-01 11:45:00,
2013-06-01 07:47:00,63.7,62.2,28.98,SSE,168,7.0,11.0,95,0.00,,,0.00,WUHU216DAVISVP2,2013-06-01 11:47:00,
2013-06-01 07:49:00,63.8,62.6,28.98,SW,221,3.0,11.0,96,0.00,,,0.00,WUHU216DAVISVP2,2013-06-01 11:49:00,
2013-06-01 07:50:00,63.7,62.5,28.98,South,174,7.0,11.0,96,0.00,,,0.00,WUHU216DAVISVP2,2013-06-01 11:50:00,
2013-06-01 07:52:00,63.7,62.2,28.98,SSE,168,8.0,11.0,95,0.00,,,0.00,WUHU216DAVISVP2,2013-06-01 11:52:00,
2013-06-01 07:53:00,63.7,62.2,28.98,South,170,11.0,11.0,95,0.00,,,0.00,WUHU216DAVISVP2,2013-06-01 11:53:00,
2013-06-01 07:54:00,63.8,62.3,28.97,South,173,6.0,11.0,95,0.00,,,0.00,WUHU216DAVISVP2,2013-06-01 11:54:00,
2013-06-01 07:55:00,63.8,62.3,28.97,South,179,1.0,11.0,95,0.00,,,0.00,WUHU216DAVISVP2,2013-06-01 11:55:00,
2013-06-01 07:56:00,63.8,62.3,28.97,South,183,0.0,11.0,95,0.00,,,0.00,WUHU216DAVISVP2,2013-06-01 11:56:00,
2013-06-01 07:57:00,63.8,62.3,28.97,SSW,211,6.0,12.0,95,0.00,,,0.00,WUHU216DAVISVP2,2013-06-01 11:57:00,
2013-06-01 07:58:00,63.8,62.3,28.97,SSE,158,10.0,12.0,95,0.00,,,0.00,WUHU216DAVISVP2,2013-06-01 11:58:00,
2013-06-01 07:59:00,63.8,62.3,28.97,South,180,6.0,12.0,95,0.00,,,0.00,WUHU216DAVISVP2,2013-06-01 11:59:00,
2013-06-01 08:00:00,63.8,62.3,28.97,South,170,18.0,18.0,95,0.00,,,0.00,WUHU216DAVISVP2,2013-06-01 12:00:00,
2013-06-01 08:01:00,63.8,62.3,28.97,South,171,10.0,18.0,95,0.00,,,0.00,WUHU216DAVISVP2,2013-06-01 12:01:00,
2013-06-01 08:02:00,63.8,62.3,28.97,South,179,9.0,18.0,95,0.00,,,0.00,WUHU216DAVISVP2,2013-06-01 12:02:00,
2013-06-01 08:03:00,63.8,62.3,28.98,SSW,197,6.0,18.0,95,0.00,,,0.00,WUHU216DAVISVP2,2013-06-01 12:03:00,
2013-06-01 08:04:00,63.8,62.3,28.98,South,185,8.0,18.0,95,0.00,,,0.00,WUHU216DAVISVP2,2013-06-01 12:04:00,
2013-06-01 08:05:00,63.8,62.3,28.98,SSE,148,8.0,18.0,95,0.00,,,0.00,WUHU216DAVISVP2,2013-06-01 12:05:00,
2013-06-01 08:07:00,63.8,62.3,28.98,SSW,206,6.0,18.0,95,0.00,,,0.00,WUHU216DAVISVP2,2013-06-01 12:07:00,
2013-06-01 08:08:00,63.9,62.4,28.98,South,182,7.0,18.0,95,0.00,,,0.00,WUHU216DAVISVP2,2013-06-01 12:08:00,
2013-06-01 08:09:00,63.9,62.4,28.98,SSE,160,9.0,18.0,95,0.00,,,0.00,WUHU216DAVISVP2,2013-06-01 12:09:00,
2013-06-01 08:10:00,63.9,62.4,28.98,South,174,8.0,18.0,95,0.00,,,0.00,WUHU216DAVISVP2,2013-06-01 12:10:00,
2013-06-01 08:12:00,64.0,62.5,28.97,South,170,9.0,18.0,95,0.00,,,0.00,WUHU216DAVISVP2,2013-06-01 12:12:00,
2013-06-01 08:14:00,64.0,62.5,28.97,South,181,8.0,18.0,95,0.00,,,0.00,WUHU216DAVISVP2,2013-06-01 12:14:00,
2013-06-01 08:15:00,64.0,62.5,28.97,SSW,208,2.0,18.0,95,0.00,,,0.00,WUHU216DAVISVP2,2013-06-01 12:15:00,
2013-06-01 08:17:00,64.0,62.5,28.97,SSE,168,8.0,18.0,95,0.00,,,0.00,WUHU216DAVISVP2,2013-06-01 12:17:00,
2013-06-01 08:18:00,64.0,62.5,28.97,SSE,166,9.0,18.0,95,0.00,,,0.00,WUHU216DAVISVP2,2013-06-01 12:18:00,
2013-06-01 08:19:00,64.0,62.5,28.97,SSE,164,6.0,18.0,95,0.00,,,0.00,WUHU216DAVISVP2,2013-06-01 12:19:00,
2013-06-01 08:20:00,64.0,62.5,28.97,South,177,2.0,14.0,95,0.00,,,0.00,WUHU216DAVISVP2,2013-06-01 12:20:00,
2013-06-01 08:22:00,64.1,62.6,28.97,SSW,210,2.0,14.0,95,0.00,,,0.00,WUHU216DAVISVP2,2013-06-01 12:22:00,
2013-06-01 08:23:00,64.1,62.6,28.97,SSE,166,4.0,14.0,95,0.00,,,0.00,WUHU216DAVISVP2,2013-06-01 12:23:00,
2013-06-01 08:24:00,64.1,62.6,28.97,SW,215,4.0,14.0,95,0.00,,,0.00,WUHU216DAVISVP2,2013-06-01 12:24:00,
2013-06-01 08:25:00,64.1,62.6,28.97,SSW,203,5.0,14.0,95,0.00,,,0.00,WUHU216DAVISVP2,2013-06-01 12:25:00,
2013-06-01 08:27:00,64.2,62.7,28.97,South,174,4.0,14.0,95,0.00,,,0.00,WUHU216DAVISVP2,2013-06-01 12:27:00,
2013-06-01 08:28:00,64.2,62.7,28.98,South,176,4.0,13.0,95,0.00,,,0.00,WUHU216DAVISVP2,2013-06-01 12:28:00,
2013-06-01 08:29:00,64.2,62.7,28.98,South,174,6.0,13.0,95,0.00,,,0.00,WUHU216DAVISVP2,2013-06-01 12:29:00,
2013-06-01 08:30:00,64.2,62.7,28.98,SSW,213,2.0,13.0,95,0.00,,,0.00,WUHU216DAVISVP2,2013-06-01 12:30:00,
2013-06-01 08:31:00,64.3,62.8,28.98,SSE,164,4.0,13.0,95,0.00,,,0.00,WUHU216DAVISVP2,2013-06-01 12:31:00,
2013-06-01 08:32:00,64.3,62.8,28.98,SW,214,5.0,13.0,95,0.00,,,0.00,WUHU216DAVISVP2,2013-06-01 12:32:00,
2013-06-01 08:33:00,64.3,62.8,28.98,SSW,213,4.0,13.0,95,0.00,,,0.00,WUHU216DAVISVP2,2013-06-01 12:33:00,
2013-06-01 08:34:00,64.3,62.8,28.98,South,185,6.0,13.0,95,0.00,,,0.00,WUHU216DAVISVP2,2013-06-01 12:34:00,
2013-06-01 08:35:00,64.3,62.8,28.98,South,189,2.0,13.0,95,0.00,,,0.00,WUHU216DAVISVP2,2013-06-01 12:35:00,
2013-06-01 08:36:00,64.3,62.8,28.98,South,169,5.0,13.0,95,0.00,,,0.00,WUHU216DAVISVP2,2013-06-01 12:36:00,
2013-06-01 08:38:00,64.3,62.8,28.98,SSW,199,1.0,11.0,95,0.00,,,0.00,WUHU216DAVISVP2,2013-06-01 12:38:00,
2013-06-01 08:39:00,64.4,62.9,28.98,South,179,0.0,10.0,95,0.00,,,0.00,WUHU216DAVISVP2,2013-06-01 12:39:00,
2013-06-01 08:41:00,64.4,62.9,28.99,South,184,7.0,10.0,95,0.00,,,0.00,WUHU216DAVISVP2,2013-06-01 12:41:00,
2013-06-01 08:43:00,64.4,62.9,28.99,SSW,195,6.0,10.0,95,0.00,,,0.00,WUHU216DAVISVP2,2013-06-01 12:43:00,
2013-06-01 08:44:00,64.4,62.9,28.99,SW,220,0.0,10.0,95,0.00,,,0.00,WUHU216DAVISVP2,2013-06-01 12:44:00,
2013-06-01 08:46:00,64.4,62.9,28.99,SSW,204,0.0,9.0,95,0.00,,,0.00,WUHU216DAVISVP2,2013-06-01 12:46:00,
2013-06-01 08:48:00,64.5,63.0,28.99,South,178,2.0,9.0,95,0.00,,,0.00,WUHU216DAVISVP2,2013-06-01 12:48:00,
2013-06-01 08:49:00,64.5,63.0,28.99,SSW,204,10.0,10.0,95,0.00,,,0.00,WUHU216DAVISVP2,2013-06-01 12:49:00,
2013-06-01 08:50:00,64.5,63.0,28.99,SSW,211,1.0,10.0,95,0.00,,,0.00,WUHU216DAVISVP2,2013-06-01 12:50:00,
2013-06-01 08:51:00,64.5,63.0,28.99,South,189,1.0,10.0,95,0.00,,,0.00,WUHU216DAVISVP2,2013-06-01 12:51:00,
2013-06-01 08:52:00,64.5,63.0,28.99,SSW,212,4.0,10.0,95,0.00,,,0.00,WUHU216DAVISVP2,2013-06-01 12:52:00,
2013-06-01 08:54:00,64.5,63.0,28.99,WSW,241,4.0,10.0,95,0.00,,,0.00,WUHU216DAVISVP2,2013-06-01 12:54:00,
2013-06-01 08:55:00,64.6,63.1,28.99,SSW,197,5.0,10.0,95,0.00,,,0.00,WUHU216DAVISVP2,2013-06-01 12:55:00,
2013-06-01 08:56:00,64.7,63.2,28.99,SW,224,4.0,10.0,95,0.00,,,0.00,WUHU216DAVISVP2,2013-06-01 12:56:00,
2013-06-01 08:57:00,64.7,63.2,28.99,SW,236,8.0,10.0,95,0.00,,,0.00,WUHU216DAVISVP2,2013-06-01 12:57:00,
2013-06-01 08:59:00,64.7,63.2,28.99,SSW,199,4.0,10.0,95,0.00,,,0.00,WUHU216DAVISVP2,2013-06-01 12:59:00,
2013-06-01 09:00:00,64.8,63.3,28.99,SW,229,8.0,10.0,95,0.00,,,0.00,WUHU216DAVISVP2,2013-06-01 13:00:00,
2013-06-01 09:01:00,64.8,63.3,28.99,SW,218,4.0,10.0,95,0.00,,,0.00,WUHU216DAVISVP2,2013-06-01 13:01:00,
2013-06-01 09:02:00,64.8,63.3,28.99,SSW,197,5.0,13.0,95,0.00,,,0.00,WUHU216DAVISVP2,2013-06-01 13:02:00,
2013-06-01 09:04:00,64.8,63.3,28.99,SW,214,4.0,13.0,95,0.00,,,0.00,WUHU216DAVISVP2,2013-06-01 13:04:00,
2013-06-01 09:05:00,64.8,63.3,28.99,SW,223,2.0,13.0,95,0.00,,,0.00,WUHU216DAVISVP2,2013-06-01 13:05:00,
2013-06-01 09:06:00,64.8,63.3,28.99,SSW,213,2.0,13.0,95,0.00,,,0.00,WUHU216DAVISVP2,2013-06-01 13:06:00,
2013-06-01 09:07:00,64.8,63.3,28.99,SSW,195,4.0,13.0,95,0.00,,,0.00,WUHU216DAVISVP2,2013-06-01 13:07:00,
2013-06-01 09:09:00,64.9,63.4,28.99,SSW,203,2.0,13.0,95,0.00,,,0.00,WUHU216DAVISVP2,2013-06-01 13:09:00,
2013-06-01 09:10:00,64.9,63.4,28.99,SW,224,8.0,13.0,95,0.00,,,0.00,WUHU216DAVISVP2,2013-06-01 13:10:00,
2013-06-01 09:11:00,64.9,63.4,28.99,SSW,201,2.0,13.0,95,0.00,,,0.00,WUHU216DAVISVP2,2013-06-01 13:11:00,
2013-06-01 09:12:00,65.0,63.2,28.99,SW,221,3.0,13.0,94,0.00,,,0.00,WUHU216DAVISVP2,2013-06-01 13:12:00,
2013-06-01 09:14:00,65.0,63.2,28.99,SSW,195,2.0,13.0,94,0.00,,,0.00,WUHU216DAVISVP2,2013-06-01 13:14:00,
2013-06-01 09:15:00,65.0,63.2,28.99,WSW,244,8.0,13.0,94,0.00,,,0.00,WUHU216DAVISVP2,2013-06-01 13:15:00,
2013-06-01 09:16:00,65.1,63.3,28.99,SSW,196,5.0,13.0,94,0.00,,,0.00,WUHU216DAVISVP2,2013-06-01 13:16:00,
2013-06-01 09:17:00,65.1,63.3,28.99,SW,218,7.0,13.0,94,0.00,,,0.00,WUHU216DAVISVP2,2013-06-01 13:17:00,
2013-06-01 09:19:00,65.1,63.3,28.99,WSW,246,8.0,13.0,94,0.00,,,0.00,WUHU216DAVISVP2,2013-06-01 13:19:00,
2013-06-01 09:20:00,65.1,63.3,28.99,WSW,247,5.0,13.0,94,0.00,,,0.00,WUHU216DAVISVP2,2013-06-01 13:20:00,
2013-06-01 09:21:00,65.2,63.4,28.99,South,178,6.0,11.0,94,0.00,,,0.00,WUHU216DAVISVP2,2013-06-01 13:21:00,
2013-06-01 09:22:00,65.3,63.5,28.99,South,178,6.0,11.0,94,0.00,,,0.00,WUHU216DAVISVP2,2013-06-01 13:22:00,
2013-06-01 09:24:00,65.3,63.5,28.99,WSW,238,6.0,10.0,94,0.00,,,0.00,WUHU216DAVISVP2,2013-06-01 13:24:00,
2013-06-01 09:25:00,65.3,63.5,28.99,WSW,249,4.0,10.0,94,0.00,,,0.00,WUHU216DAVISVP2,2013-06-01 13:25:00,
2013-06-01 09:26:00,65.3,63.5,29.00,SW,230,6.0,10.0,94,0.00,,,0.00,WUHU216DAVISVP2,2013-06-01 13:26:00,
2013-06-01 09:27:00,65.3,63.5,29.00,SSW,201,6.0,10.0,94,0.00,,,0.00,WUHU216DAVISVP2,2013-06-01 13:27:00,
2013-06-01 09:29:00,65.4,63.6,29.00,SW,214,3.0,10.0,94,0.00,,,0.00,WUHU216DAVISVP2,2013-06-01 13:29:00,
2013-06-01 09:30:00,65.5,63.7,29.00,SSW,195,4.0,10.0,94,0.00,,,0.00,WUHU216DAVISVP2,2013-06-01 13:30:00,
2013-06-01 09:31:00,65.5,63.7,29.00,South,176,4.0,10.0,94,0.00,,,0.00,WUHU216DAVISVP2,2013-06-01 13:31:00,
2013-06-01 09:32:00,65.5,63.7,29.00,SW,236,2.0,10.0,94,0.00,,,0.00,WUHU216DAVISVP2,2013-06-01 13:32:00,
2013-06-01 09:35:00,65.7,63.9,28.99,West,268,6.0,11.0,94,0.00,,,0.00,WUHU216DAVISVP2,2013-06-01 13:35:00,
2013-06-01 09:36:00,65.7,63.9,29.00,WSW,254,8.0,11.0,94,0.00,,,0.00,WUHU216DAVISVP2,2013-06-01 13:36:00,
2013-06-01 09:37:00,65.7,63.9,28.99,WSW,256,5.0,11.0,94,0.00,,,0.00,WUHU216DAVISVP2,2013-06-01 13:37:00,
2013-06-01 09:40:00,65.8,63.7,28.99,WSW,245,2.0,12.0,93,0.00,,,0.00,WUHU216DAVISVP2,2013-06-01 13:40:00,
2013-06-01 09:41:00,65.8,63.7,29.00,SW,234,9.0,12.0,93,0.00,,,0.00,WUHU216DAVISVP2,2013-06-01 13:41:00,
2013-06-01 09:42:00,65.8,63.7,29.00,SW,226,2.0,12.0,93,0.00,,,0.00,WUHU216DAVISVP2,2013-06-01 13:42:00,
2013-06-01 09:45:00,65.9,63.8,29.00,WSW,243,2.0,12.0,93,0.00,,,0.00,WUHU216DAVISVP2,2013-06-01 13:45:00,
2013-06-01 09:46:00,66.0,63.9,29.00,WSW,243,6.0,12.0,93,0.00,,,0.00,WUHU216DAVISVP2,2013-06-01 13:46:00,
2013-06-01 09:47:00,66.1,64.0,29.00,WSW,252,7.0,12.0,93,0.00,,,0.00,WUHU216DAVISVP2,2013-06-01 13:47:00,
2013-06-01 09:50:00,66.1,64.0,29.00,WSW,246,6.0,12.0,93,0.00,,,0.00,WUHU216DAVISVP2,2013-06-01 13:50:00,
2013-06-01 09:51:00,66.2,64.1,29.00,WSW,245,6.0,12.0,93,0.00,,,0.00,WUHU216DAVISVP2,2013-06-01 13:51:00,
2013-06-01 09:52:00,66.2,64.1,29.00,WSW,248,6.0,12.0,93,0.00,,,0.00,WUHU216DAVISVP2,2013-06-01 13:52:00,
2013-06-01 09:53:00,66.2,63.8,29.00,SW,220,1.0,12.0,92,0.00,,,0.00,WUHU216DAVISVP2,2013-06-01 13:53:00,
2013-06-01 09:55:00,66.3,63.9,29.00,SW,226,11.0,12.0,92,0.00,,,0.00,WUHU216DAVISVP2,2013-06-01 13:55:00,
2013-06-01 09:56:00,66.3,63.9,29.00,WSW,237,5.0,12.0,92,0.00,,,0.00,WUHU216DAVISVP2,2013-06-01 13:56:00,
2013-06-01 09:57:00,66.3,63.9,29.00,SW,226,7.0,11.0,92,0.00,,,0.00,WUHU216DAVISVP2,2013-06-01 13:57:00,
2013-06-01 09:58:00,66.3,63.9,29.00,SSW,204,4.0,11.0,92,0.00,,,0.00,WUHU216DAVISVP2,2013-06-01 13:58:00,
2013-06-01 10:00:00,66.4,64.0,29.00,SSW,199,0.0,11.0,92,0.00,,,0.00,WUHU216DAVISVP2,2013-06-01 14:00:00,
2013-06-01 10:01:00,66.4,64.0,28.99,SW,214,0.0,11.0,92,0.00,,,0.00,WUHU216DAVISVP2,2013-06-01 14:01:00,
2013-06-01 10:02:00,66.5,64.1,29.00,South,174,6.0,11.0,92,0.00,,,0.00,WUHU216DAVISVP2,2013-06-01 14:02:00,
2013-06-01 10:03:00,66.5,64.1,29.00,South,187,5.0,11.0,92,0.00,,,0.00,WUHU216DAVISVP2,2013-06-01 14:03:00,
2013-06-01 10:05:00,66.5,64.1,29.00,South,177,2.0,11.0,92,0.00,,,0.00,WUHU216DAVISVP2,2013-06-01 14:05:00,
2013-06-01 10:06:00,66.5,64.1,29.00,SW,229,8.0,11.0,92,0.00,,,0.00,WUHU216DAVISVP2,2013-06-01 14:06:00,
2013-06-01 10:07:00,66.6,64.2,29.00,SSW,206,4.0,11.0,92,0.00,,,0.00,WUHU216DAVISVP2,2013-06-01 14:07:00,
2013-06-01 10:08:00,66.6,64.2,29.00,SSW,211,2.0,11.0,92,0.00,,,0.00,WUHU216DAVISVP2,2013-06-01 14:08:00,
2013-06-01 10:10:00,66.7,64.3,29.00,WSW,246,8.0,11.0,92,0.00,,,0.00,WUHU216DAVISVP2,2013-06-01 14:10:00,
2013-06-01 10:11:00,66.7,64.0,29.00,WSW,241,6.0,11.0,91,0.00,,,0.00,WUHU216DAVISVP2,2013-06-01 14:11:00,
2013-06-01 10:12:00,66.8,64.1,29.00,West,262,10.0,13.0,91,0.00,,,0.00,WUHU216DAVISVP2,2013-06-01 14:12:00,
2013-06-01 10:13:00,66.8,64.1,29.00,WSW,257,7.0,13.0,91,0.00,,,0.00,WUHU216DAVISVP2,2013-06-01 14:13:00,
2013-06-01 10:14:00,66.8,64.1,29.00,WSW,239,10.0,13.0,91,0.00,,,0.00,WUHU216DAVISVP2,2013-06-01 14:14:00,
2013-06-01 10:15:00,66.8,64.1,29.00,SW,216,2.0,13.0,91,0.00,,,0.00,WUHU216DAVISVP2,2013-06-01 14:15:00,
2013-06-01 10:17:00,66.9,64.2,29.00,WSW,245,2.0,13.0,91,0.00,,,0.00,WUHU216DAVISVP2,2013-06-01 14:17:00,
2013-06-01 10:18:00,67.0,64.3,29.00,WNW,302,0.0,13.0,91,0.00,,,0.00,WUHU216DAVISVP2,2013-06-01 14:18:00,
2013-06-01 10:19:00,67.1,64.7,29.00,WNW,302,3.0,13.0,92,0.00,,,0.00,WUHU216DAVISVP2,2013-06-01 14:19:00,
2013-06-01 10:20:00,67.3,64.6,29.00,WNW,302,1.0,13.0,91,0.00,,,0.00,WUHU216DAVISVP2,2013-06-01 14:20:00,
2013-06-01 10:22:00,67.4,64.7,29.00,WSW,247,5.0,13.0,91,0.00,,,0.00,WUHU216DAVISVP2,2013-06-01 14:22:00,
2013-06-01 10:23:00,67.4,64.7,29.00,WSW,241,8.0,13.0,91,0.00,,,0.00,WUHU216DAVISVP2,2013-06-01 14:23:00,
2013-06-01 10:24:00,67.4,64.3,29.00,West,261,7.0,13.0,90,0.00,,,0.00,WUHU216DAVISVP2,2013-06-01 14:24:00,
2013-06-01 10:25:00,67.4,64.3,29.00,WSW,247,5.0,13.0,90,0.00,,,0.00,WUHU216DAVISVP2,2013-06-01 14:25:00,
2013-06-01 10:27:00,67.5,64.4,29.01,WSW,247,9.0,13.0,90,0.00,,,0.00,WUHU216DAVISVP2,2013-06-01 14:27:00,
2013-06-01 10:28:00,67.5,64.4,29.01,West,260,6.0,13.0,90,0.00,,,0.00,WUHU216DAVISVP2,2013-06-01 14:28:00,
2013-06-01 10:29:00,67.6,64.5,29.01,WSW,256,7.0,13.0,90,0.00,,,0.00,WUHU216DAVISVP2,2013-06-01 14:29:00,
2013-06-01 10:30:00,67.6,64.5,29.01,WSW,245,9.0,13.0,90,0.00,,,0.00,WUHU216DAVISVP2,2013-06-01 14:30:00,
2013-06-01 10:31:00,67.6,64.2,29.01,WSW,250,11.0,15.0,89,0.00,,,0.00,WUHU216DAVISVP2,2013-06-01 14:31:00,
2013-06-01 10:32:00,67.6,64.2,29.01,SSW,193,2.0,15.0,89,0.00,,,0.00,WUHU216DAVISVP2,2013-06-01 14:32:00,
2013-06-01 10:33:00,67.7,64.3,29.00,WSW,237,8.0,15.0,89,0.00,,,0.00,WUHU216DAVISVP2,2013-06-01 14:33:00,
2013-06-01 10:34:00,67.7,64.3,29.00,South,185,6.0,15.0,89,0.00,,,0.00,WUHU216DAVISVP2,2013-06-01 14:34:00,
2013-06-01 10:35:00,67.9,64.5,29.00,South,187,8.0,15.0,89,0.00,,,0.00,WUHU216DAVISVP2,2013-06-01 14:35:00,
2013-06-01 10:36:00,67.9,64.5,29.00,WSW,256,9.0,15.0,89,0.00,,,0.00,WUHU216DAVISVP2,2013-06-01 14:36:00,
2013-06-01 10:37:00,68.0,64.6,29.00,South,186,13.0,15.0,89,0.00,,,0.00,WUHU216DAVISVP2,2013-06-01 14:37:00,
2013-06-01 10:39:00,68.1,64.7,29.00,WSW,247,4.0,15.0,89,0.00,,,0.00,WUHU216DAVISVP2,2013-06-01 14:39:00,
2013-06-01 10:41:00,68.2,64.5,29.00,WSW,244,8.0,15.0,88,0.00,,,0.00,WUHU216DAVISVP2,2013-06-01 14:41:00,
2013-06-01 10:42:00,68.3,64.6,29.00,WSW,237,10.0,15.0,88,0.00,,,0.00,WUHU216DAVISVP2,2013-06-01 14:42:00,
2013-06-01 10:44:00,68.4,64.7,29.00,WSW,237,6.0,20.0,88,0.00,,,0.00,WUHU216DAVISVP2,2013-06-01 14:44:00,
2013-06-01 10:46:00,68.4,64.4,29.01,WSW,239,13.0,20.0,87,0.00,,,0.00,WUHU216DAVISVP2,2013-06-01 14:46:00,
2013-06-01 10:47:00,68.5,64.5,29.01,SW,224,4.0,20.0,87,0.00,,,0.00,WUHU216DAVISVP2,2013-06-01 14:47:00,
2013-06-01 10:49:00,68.5,64.5,29.01,WSW,257,6.0,20.0,87,0.00,,,0.00,WUHU216DAVISVP2,2013-06-01 14:49:00,
2013-06-01 10:52:00,68.7,64.7,29.01,WSW,239,2.0,20.0,87,0.00,,,0.00,WUHU216DAVISVP2,2013-06-01 14:52:00,
2013-06-01 10:53:00,68.9,64.9,29.01,WSW,256,6.0,20.0,87,0.00,,,0.00,WUHU216DAVISVP2,2013-06-01 14:53:00,
2013-06-01 10:54:00,69.0,65.0,29.00,WSW,246,9.0,20.0,87,0.00,,,0.00,WUHU216DAVISVP2,2013-06-01 14:54:00,
2013-06-01 10:57:00,69.2,65.2,29.00,South,187,10.0,20.0,87,0.00,,,0.00,WUHU216DAVISVP2,2013-06-01 14:57:00,
2013-06-01 10:58:00,69.2,64.8,29.00,WSW,243,9.0,20.0,86,0.00,,,0.00,WUHU216DAVISVP2,2013-06-01 14:58:00,
2013-06-01 10:59:00,69.2,64.8,29.00,SSW,201,10.0,20.0,86,0.00,,,0.00,WUHU216DAVISVP2,2013-06-01 14:59:00,
2013-06-01 11:00:00,69.2,64.8,29.00,SW,236,8.0,20.0,86,0.00,,,0.00,WUHU216DAVISVP2,2013-06-01 15:00:00,
2013-06-01 11:02:00,69.2,64.5,29.00,SW,228,6.0,21.0,85,0.00,,,0.00,WUHU216DAVISVP2,2013-06-01 15:02:00,
2013-06-01 11:03:00,69.2,64.8,29.00,West,261,12.0,21.0,86,0.00,,,0.00,WUHU216DAVISVP2,2013-06-01 15:03:00,
2013-06-01 11:04:00,69.3,64.9,29.00,SSW,204,1.0,21.0,86,0.00,,,0.00,WUHU216DAVISVP2,2013-06-01 15:04:00,
2013-06-01 11:05:00,69.2,64.5,29.00,SW,231,13.0,23.0,85,0.00,,,0.00,WUHU216DAVISVP2,2013-06-01 15:05:00,
2013-06-01 11:07:00,69.2,64.2,29.00,WNW,295,11.0,27.0,84,0.00,,,0.00,WUHU216DAVISVP2,2013-06-01 15:07:00,
2013-06-01 11:08:00,69.1,64.4,29.00,WSW,247,9.0,27.0,85,0.00,,,0.00,WUHU216DAVISVP2,2013-06-01 15:08:00,
2013-06-01 11:09:00,69.2,64.5,29.00,West,266,7.0,27.0,85,0.00,,,0.00,WUHU216DAVISVP2,2013-06-01 15:09:00,
2013-06-01 11:10:00,69.2,64.5,29.00,WSW,243,9.0,27.0,85,0.00,,,0.00,WUHU216DAVISVP2,2013-06-01 15:10:00,
2013-06-01 11:12:00,69.4,64.7,29.00,WSW,256,8.0,27.0,85,0.00,,,0.00,WUHU216DAVISVP2,2013-06-01 15:12:00,
2013-06-01 11:13:00,69.5,64.8,29.00,WSW,244,12.0,27.0,85,0.00,,,0.00,WUHU216DAVISVP2,2013-06-01 15:13:00,
2013-06-01 11:14:00,69.6,64.9,29.00,WSW,256,6.0,27.0,85,0.00,,,0.00,WUHU216DAVISVP2,2013-06-01 15:14:00,
2013-06-01 11:15:00,69.7,65.0,29.00,WSW,258,6.0,27.0,85,0.00,,,0.00,WUHU216DAVISVP2,2013-06-01 15:15:00,
2013-06-01 11:17:00,70.0,65.0,29.00,WSW,247,15.0,27.0,84,0.00,,,0.00,WUHU216DAVISVP2,2013-06-01 15:17:00,
2013-06-01 11:19:00,70.1,65.1,29.00,WSW,247,19.0,27.0,84,0.00,,,0.00,WUHU216DAVISVP2,2013-06-01 15:19:00,
2013-06-01 11:20:00,70.0,64.3,29.00,WSW,249,25.0,27.0,82,0.00,,,0.00,WUHU216DAVISVP2,2013-06-01 15:20:00,
2013-06-01 11:22:00,70.0,64.6,29.00,WSW,256,18.0,27.0,83,0.00,,,0.00,WUHU216DAVISVP2,2013-06-01 15:22:00,
2013-06-01 11:24:00,70.0,64.6,29.00,WSW,257,16.0,27.0,83,0.00,,,0.00,WUHU216DAVISVP2,2013-06-01 15:24:00,
2013-06-01 11:25:00,70.0,64.3,29.01,WSW,258,10.0,27.0,82,0.00,,,0.00,WUHU216DAVISVP2,2013-06-01 15:25:00,
2013-06-01 11:26:00,70.0,64.3,29.01,WSW,258,16.0,26.0,82,0.00,,,0.00,WUHU216DAVISVP2,2013-06-01 15:26:00,
2013-06-01 11:27:00,70.1,64.4,29.00,West,266,6.0,26.0,82,0.00,,,0.00,WUHU216DAVISVP2,2013-06-01 15:27:00,
2013-06-01 11:29:00,70.2,64.8,29.00,West,268,11.0,26.0,83,0.00,,,0.00,WUHU216DAVISVP2,2013-06-01 15:29:00,
2013-06-01 11:30:00,70.3,64.6,29.00,WSW,253,18.0,26.0,82,0.00,,,0.00,WUHU216DAVISVP2,2013-06-01 15:30:00,
2013-06-01 11:31:00,70.3,64.6,29.00,WSW,256,12.0,26.0,82,0.00,,,0.00,WUHU216DAVISVP2,2013-06-01 15:31:00,
2013-06-01 11:33:00,70.3,63.9,29.00,WSW,253,10.0,35.0,80,0.00,,,0.00,WUHU216DAVISVP2,2013-06-01 15:33:00,
2013-06-01 11:34:00,70.2,63.8,29.00,WSW,250,12.0,35.0,80,0.00,,,0.00,WUHU216DAVISVP2,2013-06-01 15:34:00,
2013-06-01 11:35:00,70.2,63.8,29.00,SW,234,12.0,35.0,80,0.00,,,0.00,WUHU216DAVISVP2,2013-06-01 15:35:00,
2013-06-01 11:36:00,70.2,63.8,29.00,WSW,251,13.0,35.0,80,0.00,,,0.00,WUHU216DAVISVP2,2013-06-01 15:36:00,
2013-06-01 11:38:00,70.4,64.4,29.01,WSW,247,16.0,35.0,81,0.00,,,0.00,WUHU216DAVISVP2,2013-06-01 15:38:00,
2013-06-01 11:39:00,70.4,64.0,29.01,West,277,10.0,35.0,80,0.00,,,0.00,WUHU216DAVISVP2,2013-06-01 15:39:00,
2013-06-01 11:41:00,70.5,64.1,29.01,West,265,9.0,35.0,80,0.00,,,0.00,WUHU216DAVISVP2,2013-06-01 15:41:00,
2013-06-01 11:42:00,70.6,64.2,29.01,SW,226,10.0,35.0,80,0.00,,,0.00,WUHU216DAVISVP2,2013-06-01 15:42:00,
2013-06-01 11:43:00,70.6,64.2,29.01,SW,226,14.0,35.0,80,0.00,,,0.00,WUHU216DAVISVP2,2013-06-01 15:43:00,
2013-06-01 11:44:00,70.7,64.3,29.01,WSW,242,6.0,35.0,80,0.00,,,0.00,WUHU216DAVISVP2,2013-06-01 15:44:00,
2013-06-01 11:46:00,70.6,63.9,29.02,WSW,238,16.0,35.0,79,0.00,,,0.00,WUHU216DAVISVP2,2013-06-01 15:46:00,
2013-06-01 11:47:00,70.5,63.8,29.01,West,265,28.0,35.0,79,0.00,,,0.00,WUHU216DAVISVP2,2013-06-01 15:47:00,
2013-06-01 11:48:00,70.4,63.3,29.02,WNW,296,11.0,35.0,78,0.00,,,0.00,WUHU216DAVISVP2,2013-06-01 15:48:00,
2013-06-01 11:49:00,70.4,63.7,29.02,WSW,238,12.0,35.0,79,0.00,,,0.00,WUHU216DAVISVP2,2013-06-01 15:49:00,
2013-06-01 11:51:00,70.4,63.7,29.02,WSW,244,14.0,33.0,79,0.00,,,0.00,WUHU216DAVISVP2,2013-06-01 15:51:00,
2013-06-01 11:52:00,70.4,63.7,29.02,SW,228,8.0,31.0,79,0.00,,,0.00,WUHU216DAVISVP2,2013-06-01 15:52:00,
2013-06-01 11:54:00,70.5,63.4,29.01,SW,235,13.0,31.0,78,0.00,,,0.00,WUHU216DAVISVP2,2013-06-01 15:54:00,
2013-06-01 11:56:00,70.5,63.4,29.01,SW,222,8.0,31.0,78,0.00,,,0.00,WUHU216DAVISVP2,2013-06-01 15:56:00,
2013-06-01 11:57:00,70.5,63.4,29.01,WSW,244,8.0,31.0,78,0.00,,,0.00,WUHU216DAVISVP2,2013-06-01 15:57:00,
2013-06-01 11:59:00,70.4,63.3,29.01,SW,224,10.0,31.0,78,0.00,,,0.00,WUHU216DAVISVP2,2013-06-01 15:59:00,
2013-06-01 12:00:00,70.4,63.3,29.01,WSW,253,16.0,31.0,78,0.00,,,0.00,WUHU216DAVISVP2,2013-06-01 16:00:00,
2013-06-01 12:01:00,70.4,63.3,29.01,SW,218,13.0,31.0,78,0.00,,,0.00,WUHU216DAVISVP2,2013-06-01 16:01:00,
2013-06-01 12:02:00,70.4,63.3,29.01,WSW,256,20.0,31.0,78,0.00,,,0.00,WUHU216DAVISVP2,2013-06-01 16:02:00,
2013-06-01 12:04:00,70.5,63.4,29.01,WSW,256,13.0,31.0,78,0.00,,,0.00,WUHU216DAVISVP2,2013-06-01 16:04:00,
2013-06-01 12:05:00,70.6,63.5,29.01,WSW,239,22.0,31.0,78,0.00,,,0.00,WUHU216DAVISVP2,2013-06-01 16:05:00,
2013-06-01 12:06:00,70.7,63.6,29.02,WSW,237,26.0,29.0,78,0.00,,,0.00,WUHU216DAVISVP2,2013-06-01 16:06:00,
2013-06-01 12:07:00,70.8,63.4,29.01,SW,234,8.0,29.0,77,0.00,,,0.00,WUHU216DAVISVP2,2013-06-01 16:07:00,
2013-06-01 12:09:00,70.8,63.4,29.02,West,269,14.0,29.0,77,0.00,,,0.00,WUHU216DAVISVP2,2013-06-01 16:09:00,
2013-06-01 12:10:00,70.8,63.4,29.02,WSW,241,13.0,29.0,77,0.00,,,0.00,WUHU216DAVISVP2,2013-06-01 16:10:00,
2013-06-01 12:12:00,70.9,63.8,29.02,West,278,14.0,29.0,78,0.00,,,0.00,WUHU216DAVISVP2,2013-06-01 16:12:00,
2013-06-01 12:14:00,71.1,64.0,29.02,WSW,247,25.0,27.0,78,0.00,,,0.00,WUHU216DAVISVP2,2013-06-01 16:14:00,
2013-06-01 12:15:00,71.2,63.7,29.01,SW,215,8.0,28.0,77,0.00,,,0.00,WUHU216DAVISVP2,2013-06-01 16:15:00,
2013-06-01 12:17:00,71.2,64.1,29.01,SW,235,16.0,28.0,78,0.00,,,0.00,WUHU216DAVISVP2,2013-06-01 16:17:00,
2013-06-01 12:20:00,71.2,63.7,29.02,WNW,291,24.0,31.0,77,0.00,,,0.00,WUHU216DAVISVP2,2013-06-01 16:20:00,
2013-06-01 12:21:00,71.2,63.7,29.01,WSW,239,36.0,36.0,77,0.00,,,0.00,WUHU216DAVISVP2,2013-06-01 16:21:00,
2013-06-01 12:22:00,71.2,63.4,29.02,West,272,14.0,36.0,76,0.00,,,0.00,WUHU216DAVISVP2,2013-06-01 16:22:00,
2013-06-01 12:25:00,71.3,63.5,29.02,WSW,244,15.0,36.0,76,0.00,,,0.00,WUHU216DAVISVP2,2013-06-01 16:25:00,
2013-06-01 12:26:00,71.4,63.6,29.02,WSW,256,14.0,36.0,76,0.00,,,0.00,WUHU216DAVISVP2,2013-06-01 16:26:00,
2013-06-01 12:27:00,71.4,63.9,29.02,West,272,16.0,36.0,77,0.00,,,0.00,WUHU216DAVISVP2,2013-06-01 16:27:00,
2013-06-01 12:30:00,71.4,63.6,29.02,West,268,15.0,36.0,76,0.00,,,0.00,WUHU216DAVISVP2,2013-06-01 16:30:00,
2013-06-01 12:31:00,71.4,63.6,29.02,WSW,238,7.0,36.0,76,0.00,,,0.00,WUHU216DAVISVP2,2013-06-01 16:31:00,
2013-06-01 12:32:00,71.4,63.6,29.01,WSW,253,26.0,36.0,76,0.00,,,0.00,WUHU216DAVISVP2,2013-06-01 16:32:00,
2013-06-01 12:33:00,71.4,63.6,29.01,WSW,253,26.0,36.0,76,0.00,,,0.00,WUHU216DAVISVP2,2013-06-01 16:33:00,
2013-06-01 12:36:00,71.3,63.5,29.02,WSW,253,16.0,36.0,76,0.00,,,0.00,WUHU216DAVISVP2,2013-06-01 16:36:00,
2013-06-01 12:38:00,71.3,63.8,29.02,SW,220,7.0,36.0,77,0.00,,,0.00,WUHU216DAVISVP2,2013-06-01 16:38:00,
2013-06-01 12:41:00,71.2,63.7,29.01,SSW,199,11.0,27.0,77,0.00,,,0.00,WUHU216DAVISVP2,2013-06-01 16:41:00,
2013-06-01 12:42:00,71.2,63.7,29.01,SW,218,5.0,27.0,77,0.00,,,0.00,WUHU216DAVISVP2,2013-06-01 16:42:00,
2013-06-01 12:43:00,71.3,63.8,29.01,West,277,10.0,27.0,77,0.00,,,0.00,WUHU216DAVISVP2,2013-06-01 16:43:00,
2013-06-01 12:46:00,71.5,64.0,29.02,WSW,245,11.0,27.0,77,0.00,,,0.00,WUHU216DAVISVP2,2013-06-01 16:46:00,
2013-06-01 12:47:00,71.5,64.0,29.02,WSW,256,11.0,27.0,77,0.00,,,0.00,WUHU216DAVISVP2,2013-06-01 16:47:00,
2013-06-01 12:48:00,71.5,63.7,29.02,WSW,244,14.0,27.0,76,0.00,,,0.00,WUHU216DAVISVP2,2013-06-01 16:48:00,
2013-06-01 12:51:00,71.4,63.6,29.01,WSW,237,12.0,27.0,76,0.00,,,0.00,WUHU216DAVISVP2,2013-06-01 16:51:00,
2013-06-01 12:52:00,71.3,63.5,29.01,WSW,238,21.0,27.0,76,0.00,,,0.00,WUHU216DAVISVP2,2013-06-01 16:52:00,
2013-06-01 12:53:00,71.3,63.5,29.01,WSW,243,12.0,27.0,76,0.00,,,0.00,WUHU216DAVISVP2,2013-06-01 16:53:00,
2013-06-01 12:56:00,71.3,63.5,29.01,WSW,255,14.0,26.0,76,0.01,,,0.01,WUHU216DAVISVP2,2013-06-01 16:56:00,
2013-06-01 12:58:00,71.3,63.5,29.01,SW,217,9.0,26.0,76,0.01,,,0.01,WUHU216DAVISVP2,2013-06-01 16:58:00,
2013-06-01 12:59:00,71.2,63.0,29.01,West,262,16.0,26.0,75,0.01,,,0.01,WUHU216DAVISVP2,2013-06-01 16:59:00,
2013-06-01 13:02:00,71.2,63.4,29.01,WSW,249,6.0,26.0,76,0.01,,,0.01,WUHU216DAVISVP2,2013-06-01 17:02:00,
2013-06-01 13:03:00,71.2,63.4,29.01,West,266,7.0,26.0,76,0.01,,,0.01,WUHU216DAVISVP2,2013-06-01 17:03:00,
2013-06-01 13:04:00,71.2,63.4,29.01,WSW,251,9.0,26.0,76,0.01,,,0.01,WUHU216DAVISVP2,2013-06-01 17:04:00,
2013-06-01 13:07:00,71.2,63.0,29.01,WSW,249,15.0,26.0,75,0.01,,,0.01,WUHU216DAVISVP2,2013-06-01 17:07:00,
2013-06-01 13:08:00,71.2,63.0,29.01,WSW,251,11.0,33.0,75,0.01,,,0.01,WUHU216DAVISVP2,2013-06-01 17:08:00,
2013-06-01 13:09:00,71.2,63.4,29.01,WSW,240,9.0,33.0,76,0.01,,,0.01,WUHU216DAVISVP2,2013-06-01 17:09:00,
2013-06-01 13:12:00,71.3,63.5,29.01,West,267,14.0,33.0,76,0.01,,,0.01,WUHU216DAVISVP2,2013-06-01 17:12:00,
2013-06-01 13:13:00,71.3,63.1,29.01,West,263,10.0,33.0,75,0.01,,,0.01,WUHU216DAVISVP2,2013-06-01 17:13:00,
2013-06-01 13:14:00,71.3,63.1,29.01,WNW,289,9.0,33.0,75,0.01,,,0.01,WUHU216DAVISVP2,2013-06-01 17:14:00,
2013-06-01 13:17:00,71.2,63.4,29.01,WNW,285,9.0,33.0,76,0.01,,,0.01,WUHU216DAVISVP2,2013-06-01 17:17:00,
2013-06-01 13:18:00,71.2,63.4,29.01,West,272,9.0,33.0,76,0.01,,,0.01,WUHU216DAVISVP2,2013-06-01 17:18:00,
2013-06-01 13:19:00,71.2,63.4,29.01,SW,218,7.0,33.0,76,0.01,,,0.01,WUHU216DAVISVP2,2013-06-01 17:19:00,
2013-06-01 13:22:00,71.3,63.5,29.02,West,269,14.0,33.0,76,0.01,,,0.01,WUHU216DAVISVP2,2013-06-01 17:22:00,
2013-06-01 13:23:00,71.2,63.4,29.02,WSW,255,10.0,33.0,76,0.01,,,0.01,WUHU216DAVISVP2,2013-06-01 17:23:00,
2013-06-01 13:24:00,71.2,63.4,29.01,WSW,256,6.0,33.0,76,0.01,,,0.01,WUHU216DAVISVP2,2013-06-01 17:24:00,
2013-06-01 13:25:00,71.1,63.3,29.01,West,263,4.0,33.0,76,0.01,,,0.01,WUHU216DAVISVP2,2013-06-01 17:25:00,
2013-06-01 13:27:00,71.2,63.7,29.01,West,264,7.0,25.0,77,0.01,,,0.01,WUHU216DAVISVP2,2013-06-01 17:27:00,
2013-06-01 13:28:00,71.2,63.7,29.01,West,268,11.0,25.0,77,0.01,,,0.01,WUHU216DAVISVP2,2013-06-01 17:28:00,
2013-06-01 13:29:00,71.2,63.7,29.01,West,261,5.0,25.0,77,0.01,,,0.01,WUHU216DAVISVP2,2013-06-01 17:29:00,
2013-06-01 13:30:00,71.2,63.7,29.01,WSW,256,7.0,25.0,77,0.01,,,0.01,WUHU216DAVISVP2,2013-06-01 17:30:00,
2013-06-01 13:32:00,71.1,63.3,29.01,SSW,199,7.0,25.0,76,0.01,,,0.01,WUHU216DAVISVP2,2013-06-01 17:32:00,
2013-06-01 13:34:00,71.1,63.6,29.01,NW,308,6.0,20.0,77,0.01,,,0.01,WUHU216DAVISVP2,2013-06-01 17:34:00,
2013-06-01 13:35:00,71.1,63.6,29.01,West,267,6.0,20.0,77,0.01,,,0.01,WUHU216DAVISVP2,2013-06-01 17:35:00,
2013-06-01 13:37:00,71.1,63.6,29.01,SW,233,11.0,20.0,77,0.01,,,0.01,WUHU216DAVISVP2,2013-06-01 17:37:00,
2013-06-01 13:39:00,71.1,63.6,29.01,WSW,256,8.0,20.0,77,0.01,,,0.01,WUHU216DAVISVP2,2013-06-01 17:39:00,
2013-06-01 13:40:00,71.2,63.7,29.01,SSW,205,5.0,20.0,77,0.01,,,0.01,WUHU216DAVISVP2,2013-06-01 17:40:00,
2013-06-01 13:42:00,71.2,63.7,29.01,West,262,11.0,20.0,77,0.01,,,0.01,WUHU216DAVISVP2,2013-06-01 17:42:00,
2013-06-01 13:44:00,71.2,63.7,29.01,WSW,253,9.0,20.0,77,0.01,,,0.01,WUHU216DAVISVP2,2013-06-01 17:44:00,
2013-06-01 13:45:00,71.2,63.7,29.01,SW,226,14.0,20.0,77,0.01,,,0.01,WUHU216DAVISVP2,2013-06-01 17:45:00,
2013-06-01 13:46:00,71.2,63.7,29.01,SSW,203,12.0,20.0,77,0.01,,,0.01,WUHU216DAVISVP2,2013-06-01 17:46:00,
2013-06-01 13:47:00,71.2,63.4,29.00,SSW,206,11.0,27.0,76,0.01,,,0.01,WUHU216DAVISVP2,2013-06-01 17:47:00,
2013-06-01 13:49:00,71.2,63.4,29.00,West,259,13.0,27.0,76,0.01,,,0.01,WUHU216DAVISVP2,2013-06-01 17:49:00,
2013-06-01 13:50:00,71.2,63.4,29.00,WSW,258,8.0,27.0,76,0.01,,,0.01,WUHU216DAVISVP2,2013-06-01 17:50:00,
2013-06-01 13:51:00,71.2,63.4,29.00,WSW,258,11.0,27.0,76,0.01,,,0.01,WUHU216DAVISVP2,2013-06-01 17:51:00,
2013-06-01 13:53:00,71.2,63.4,29.00,WSW,258,7.0,27.0,76,0.01,,,0.01,WUHU216DAVISVP2,2013-06-01 17:53:00,
2013-06-01 13:54:00,71.2,63.4,29.00,West,264,7.0,27.0,76,0.01,,,0.01,WUHU216DAVISVP2,2013-06-01 17:54:00,
2013-06-01 13:55:00,71.2,63.4,29.00,West,259,14.0,27.0,76,0.00,,,0.01,WUHU216DAVISVP2,2013-06-01 17:55:00,
2013-06-01 13:56:00,71.1,63.3,29.00,West,278,13.0,27.0,76,0.00,,,0.01,WUHU216DAVISVP2,2013-06-01 17:56:00,
2013-06-01 13:58:00,71.1,63.3,29.00,West,263,11.0,27.0,76,0.00,,,0.01,WUHU216DAVISVP2,2013-06-01 17:58:00,
2013-06-01 13:59:00,71.1,63.3,29.00,WSW,249,9.0,27.0,76,0.00,,,0.01,WUHU216DAVISVP2,2013-06-01 17:59:00,
2013-06-01 14:01:00,71.1,63.3,29.00,WSW,252,8.0,27.0,76,0.00,,,0.01,WUHU216DAVISVP2,2013-06-01 18:01:00,
2013-06-01 14:03:00,71.1,63.3,29.00,WSW,247,6.0,27.0,76,0.00,,,0.01,WUHU216DAVISVP2,2013-06-01 18:03:00,
2013-06-01 14:04:00,71.1,63.6,29.00,NW,304,9.0,27.0,77,0.00,,,0.01,WUHU216DAVISVP2,2013-06-01 18:04:00,
2013-06-01 14:06:00,71.0,63.2,29.00,West,273,6.0,24.0,76,0.00,,,0.01,WUHU216DAVISVP2,2013-06-01 18:06:00,
2013-06-01 14:07:00,71.1,63.3,29.00,West,266,2.0,24.0,76,0.00,,,0.01,WUHU216DAVISVP2,2013-06-01 18:07:00,
2013-06-01 14:08:00,71.1,63.6,29.00,WSW,253,13.0,24.0,77,0.00,,,0.01,WUHU216DAVISVP2,2013-06-01 18:08:00,
2013-06-01 14:10:00,71.0,63.2,28.99,WSW,255,5.0,24.0,76,0.00,,,0.01,WUHU216DAVISVP2,2013-06-01 18:10:00,
2013-06-01 14:11:00,71.0,63.2,28.99,WSW,257,7.0,20.0,76,0.00,,,0.01,WUHU216DAVISVP2,2013-06-01 18:11:00,
2013-06-01 14:12:00,71.0,63.5,28.99,WSW,250,9.0,20.0,77,0.00,,,0.01,WUHU216DAVISVP2,2013-06-01 18:12:00,
2013-06-01 14:13:00,71.0,63.5,28.99,SW,216,8.0,20.0,77,0.00,,,0.01,WUHU216DAVISVP2,2013-06-01 18:13:00,
2013-06-01 14:15:00,71.0,63.2,28.99,West,272,7.0,20.0,76,0.00,,,0.01,WUHU216DAVISVP2,2013-06-01 18:15:00,
2013-06-01 14:16:00,71.1,63.6,28.99,WSW,256,8.0,20.0,77,0.00,,,0.01,WUHU216DAVISVP2,2013-06-01 18:16:00,
2013-06-01 14:17:00,71.1,63.6,28.99,West,259,6.0,20.0,77,0.00,,,0.01,WUHU216DAVISVP2,2013-06-01 18:17:00,
2013-06-01 14:18:00,71.3,63.8,28.99,SW,216,6.0,20.0,77,0.00,,,0.01,WUHU216DAVISVP2,2013-06-01 18:18:00,
2013-06-01 14:20:00,71.3,63.1,28.99,WSW,242,15.0,19.0,75,0.00,,,0.01,WUHU216DAVISVP2,2013-06-01 18:20:00,
2013-06-01 14:21:00,71.3,63.5,29.00,SW,218,3.0,19.0,76,0.00,,,0.01,WUHU216DAVISVP2,2013-06-01 18:21:00,
2013-06-01 14:22:00,71.3,63.5,29.00,SW,226,5.0,19.0,76,0.00,,,0.01,WUHU216DAVISVP2,2013-06-01 18:22:00,
2013-06-01 14:23:00,71.4,63.9,29.00,WSW,250,8.0,19.0,77,0.00,,,0.01,WUHU216DAVISVP2,2013-06-01 18:23:00,
2013-06-01 14:25:00,71.6,63.8,29.00,West,262,8.0,19.0,76,0.00,,,0.01,WUHU216DAVISVP2,2013-06-01 18:25:00,
2013-06-01 14:27:00,71.7,63.9,29.00,WNW,285,8.0,19.0,76,0.00,,,0.01,WUHU216DAVISVP2,2013-06-01 18:27:00,
2013-06-01 14:28:00,71.7,63.5,29.00,West,270,12.0,19.0,75,0.00,,,0.01,WUHU216DAVISVP2,2013-06-01 18:28:00,
2013-06-01 14:29:00,71.7,63.5,28.99,West,260,13.0,19.0,75,0.00,,,0.01,WUHU216DAVISVP2,2013-06-01 18:29:00,
2013-06-01 14:30:00,71.7,63.5,28.99,WSW,258,12.0,19.0,75,0.00,,,0.01,WUHU216DAVISVP2,2013-06-01 18:30:00,
2013-06-01 14:32:00,71.7,63.5,28.99,WSW,243,7.0,19.0,75,0.00,,,0.01,WUHU216DAVISVP2,2013-06-01 18:32:00,
2013-06-01 14:33:00,71.7,63.5,28.99,SW,216,8.0,19.0,75,0.00,,,0.01,WUHU216DAVISVP2,2013-06-01 18:33:00,
2013-06-01 14:34:00,71.6,63.0,28.99,WSW,254,11.0,19.0,74,0.00,,,0.01,WUHU216DAVISVP2,2013-06-01 18:34:00,
2013-06-01 14:35:00,71.5,63.3,28.99,West,266,14.0,19.0,75,0.00,,,0.01,WUHU216DAVISVP2,2013-06-01 18:35:00,
2013-06-01 14:37:00,71.3,63.1,29.00,West,278,7.0,19.0,75,0.00,,,0.01,WUHU216DAVISVP2,2013-06-01 18:37:00,
2013-06-01 14:38:00,71.3,63.1,29.00,West,262,9.0,19.0,75,0.00,,,0.01,WUHU216DAVISVP2,2013-06-01 18:38:00,
2013-06-01 14:39:00,71.3,63.5,29.00,West,260,3.0,19.0,76,0.00,,,0.01,WUHU216DAVISVP2,2013-06-01 18:39:00,
2013-06-01 14:40:00,71.5,63.7,29.00,WSW,249,10.0,19.0,76,0.00,,,0.01,WUHU216DAVISVP2,2013-06-01 18:40:00,
2013-06-01 14:42:00,71.6,63.8,29.00,West,262,7.0,19.0,76,0.00,,,0.01,WUHU216DAVISVP2,2013-06-01 18:42:00,
2013-06-01 14:43:00,71.7,63.9,29.00,WNW,289,8.0,19.0,76,0.00,,,0.01,WUHU216DAVISVP2,2013-06-01 18:43:00,
2013-06-01 14:44:00,71.8,64.0,29.00,West,271,7.0,19.0,76,0.00,,,0.01,WUHU216DAVISVP2,2013-06-01 18:44:00,
2013-06-01 14:45:00,71.9,64.1,28.99,WSW,237,10.0,19.0,76,0.00,,,0.01,WUHU216DAVISVP2,2013-06-01 18:45:00,
2013-06-01 14:47:00,72.0,63.8,28.99,WNW,288,7.0,19.0,75,0.00,,,0.01,WUHU216DAVISVP2,2013-06-01 18:47:00,
2013-06-01 14:48:00,72.0,63.8,28.99,SW,227,2.0,19.0,75,0.00,,,0.01,WUHU216DAVISVP2,2013-06-01 18:48:00,
2013-06-01 14:49:00,72.0,63.8,28.99,SW,228,15.0,19.0,75,0.00,,,0.01,WUHU216DAVISVP2,2013-06-01 18:49:00,
2013-06-01 14:51:00,72.0,63.8,28.99,West,270,12.0,19.0,75,0.00,,,0.01,WUHU216DAVISVP2,2013-06-01 18:51:00,
2013-06-01 14:53:00,72.0,63.4,28.99,WSW,243,8.0,19.0,74,0.00,,,0.01,WUHU216DAVISVP2,2013-06-01 18:53:00,
2013-06-01 14:54:00,72.0,63.8,28.99,West,266,9.0,19.0,75,0.00,,,0.01,WUHU216DAVISVP2,2013-06-01 18:54:00,
2013-06-01 14:56:00,71.9,63.3,28.99,West,275,9.0,19.0,74,0.00,,,0.01,WUHU216DAVISVP2,2013-06-01 18:56:00,
2013-06-01 14:58:00,71.9,63.7,29.00,WNW,283,7.0,19.0,75,0.00,,,0.01,WUHU216DAVISVP2,2013-06-01 18:58:00,
2013-06-01 14:59:00,71.9,63.7,29.00,WNW,284,8.0,19.0,75,0.00,,,0.01,WUHU216DAVISVP2,2013-06-01 18:59:00,
2013-06-01 15:01:00,71.9,63.3,29.00,West,262,5.0,19.0,74,0.00,,,0.01,WUHU216DAVISVP2,2013-06-01 19:01:00,
2013-06-01 15:03:00,71.9,63.3,28.99,SW,223,7.0,19.0,74,0.00,,,0.01,WUHU216DAVISVP2,2013-06-01 19:03:00,
2013-06-01 15:04:00,71.9,63.7,29.00,WSW,244,10.0,19.0,75,0.00,,,0.01,WUHU216DAVISVP2,2013-06-01 19:04:00,
2013-06-01 15:06:00,71.9,63.3,29.00,South,172,5.0,19.0,74,0.00,,,0.01,WUHU216DAVISVP2,2013-06-01 19:06:00,
2013-06-01 15:08:00,72.0,63.4,28.99,WSW,253,9.0,19.0,74,0.00,,,0.01,WUHU216DAVISVP2,2013-06-01 19:08:00,
2013-06-01 15:09:00,72.0,63.8,28.99,WSW,256,13.0,19.0,75,0.00,,,0.01,WUHU216DAVISVP2,2013-06-01 19:09:00,
2013-06-01 15:11:00,72.0,63.3,29.00,WSW,256,6.0,18.0,74,0.00,,,0.01,WUHU216DAVISVP2,2013-06-01 19:11:00,
2013-06-01 15:13:00,72.1,63.1,29.00,SSW,210,7.0,18.0,73,0.00,,,0.01,WUHU216DAVISVP2,2013-06-01 19:13:00,
2013-06-01 15:14:00,72.1,63.5,29.00,SW,235,5.0,18.0,74,0.00,,,0.01,WUHU216DAVISVP2,2013-06-01 19:14:00,
2013-06-01 15:15:00,72.0,63.0,29.00,WSW,245,13.0,19.0,73,0.00,,,0.01,WUHU216DAVISVP2,2013-06-01 19:15:00,
2013-06-01 15:16:00,72.0,63.0,29.00,SW,222,6.0,20.0,73,0.00,,,0.01,WUHU216DAVISVP2,2013-06-01 19:16:00,
2013-06-01 15:18:00,72.0,63.0,29.00,South,172,6.0,20.0,73,0.00,,,0.01,WUHU216DAVISVP2,2013-06-01 19:18:00,
2013-06-01 15:19:00,72.0,63.4,29.00,SW,226,9.0,20.0,74,0.00,,,0.01,WUHU216DAVISVP2,2013-06-01 19:19:00,
2013-06-01 15:20:00,72.1,63.5,29.00,WSW,258,8.0,20.0,74,0.00,,,0.01,WUHU216DAVISVP2,2013-06-01 19:20:00,
2013-06-01 15:21:00,72.2,63.2,29.00,WSW,249,7.0,20.0,73,0.00,,,0.01,WUHU216DAVISVP2,2013-06-01 19:21:00,
2013-06-01 15:23:00,72.2,63.2,29.00,SW,228,6.0,21.0,73,0.00,,,0.01,WUHU216DAVISVP2,2013-06-01 19:23:00,
2013-06-01 15:24:00,72.2,63.2,29.00,SW,234,7.0,21.0,73,0.00,,,0.01,WUHU216DAVISVP2,2013-06-01 19:24:00,
2013-06-01 15:25:00,72.2,63.2,29.00,SW,236,8.0,21.0,73,0.00,,,0.01,WUHU216DAVISVP2,2013-06-01 19:25:00,
2013-06-01 15:27:00,72.3,63.7,29.00,SSW,201,5.0,21.0,74,0.00,,,0.01,WUHU216DAVISVP2,2013-06-01 19:27:00,
2013-06-01 15:29:00,72.3,63.2,29.00,SW,220,6.0,21.0,73,0.00,,,0.01,WUHU216DAVISVP2,2013-06-01 19:29:00,
2013-06-01 15:30:00,72.3,63.2,29.00,South,178,7.0,21.0,73,0.00,,,0.01,WUHU216DAVISVP2,2013-06-01 19:30:00,
2013-06-01 15:32:00,72.3,63.5,29.00,SW,234,9.0,21.0,74,0.00,,,0.01,WUHU216DAVISVP2,2013-06-01 19:32:00,
2013-06-01 15:34:00,72.4,63.6,29.00,South,184,9.0,21.0,74,0.00,,,0.01,WUHU216DAVISVP2,2013-06-01 19:34:00,
2013-06-01 15:35:00,72.4,63.6,28.99,West,276,6.0,21.0,74,0.00,,,0.01,WUHU216DAVISVP2,2013-06-01 19:35:00,
2013-06-01 15:36:00,72.5,64.1,28.99,SSW,203,5.0,21.0,75,0.00,,,0.01,WUHU216DAVISVP2,2013-06-01 19:36:00,
2013-06-01 15:38:00,72.5,63.7,28.99,SW,229,8.0,21.0,74,0.00,,,0.01,WUHU216DAVISVP2,2013-06-01 19:38:00,
2013-06-01 15:39:00,72.5,63.9,29.00,WSW,243,10.0,21.0,74,0.00,,,0.01,WUHU216DAVISVP2,2013-06-01 19:39:00,
2013-06-01 15:40:00,72.6,64.0,29.00,West,272,7.0,21.0,74,0.00,,,0.01,WUHU216DAVISVP2,2013-06-01 19:40:00,
2013-06-01 15:41:00,72.6,64.0,29.00,West,280,12.0,19.0,74,0.00,,,0.01,WUHU216DAVISVP2,2013-06-01 19:41:00,
2013-06-01 15:43:00,72.5,63.5,28.99,WSW,254,8.0,15.0,73,0.00,,,0.01,WUHU216DAVISVP2,2013-06-01 19:43:00,
2013-06-01 15:44:00,72.6,64.0,28.99,WSW,243,6.0,15.0,74,0.00,,,0.01,WUHU216DAVISVP2,2013-06-01 19:44:00,
2013-06-01 15:45:00,72.6,64.0,29.00,SW,228,8.0,15.0,74,0.00,,,0.01,WUHU216DAVISVP2,2013-06-01 19:45:00,
2013-06-01 15:46:00,72.6,64.0,28.99,West,263,4.0,15.0,74,0.00,,,0.01,WUHU216DAVISVP2,2013-06-01 19:46:00,
2013-06-01 15:48:00,72.7,63.5,28.99,West,264,9.0,15.0,73,0.00,,,0.01,WUHU216DAVISVP2,2013-06-01 19:48:00,
2013-06-01 15:49:00,72.6,63.4,28.99,WSW,249,9.0,15.0,73,0.00,,,0.01,WUHU216DAVISVP2,2013-06-01 19:49:00,
2013-06-01 15:50:00,72.6,63.8,28.99,West,272,7.0,15.0,74,0.00,,,0.01,WUHU216DAVISVP2,2013-06-01 19:50:00,
2013-06-01 15:51:00,72.6,63.8,28.99,SW,222,9.0,15.0,74,0.00,,,0.01,WUHU216DAVISVP2,2013-06-01 19:51:00,
2013-06-01 15:53:00,72.5,63.4,28.99,WSW,249,8.0,15.0,73,0.00,,,0.01,WUHU216DAVISVP2,2013-06-01 19:53:00,
2013-06-01 15:54:00,72.5,63.4,28.99,WSW,250,8.0,19.0,73,0.00,,,0.01,WUHU216DAVISVP2,2013-06-01 19:54:00,
2013-06-01 15:55:00,72.4,63.3,28.99,WSW,251,13.0,19.0,73,0.00,,,0.01,WUHU216DAVISVP2,2013-06-01 19:55:00,
2013-06-01 15:56:00,72.4,63.3,28.99,West,261,6.0,19.0,73,0.00,,,0.01,WUHU216DAVISVP2,2013-06-01 19:56:00,
2013-06-01 15:58:00,72.2,63.2,29.00,WSW,247,8.0,19.0,73,0.00,,,0.01,WUHU216DAVISVP2,2013-06-01 19:58:00,
2013-06-01 15:59:00,72.2,63.2,29.00,West,261,9.0,19.0,73,0.00,,,0.01,WUHU216DAVISVP2,2013-06-01 19:59:00,
2013-06-01 16:00:00,72.2,62.8,29.00,WSW,249,5.0,19.0,72,0.00,,,0.01,WUHU216DAVISVP2,2013-06-01 20:00:00,
2013-06-01 16:01:00,72.2,63.2,28.99,WSW,246,6.0,19.0,73,0.00,,,0.01,WUHU216DAVISVP2,2013-06-01 20:01:00,
2013-06-01 16:02:00,72.2,63.2,28.99,SSW,199,5.0,19.0,73,0.00,,,0.01,WUHU216DAVISVP2,2013-06-01 20:02:00,
2013-06-01 16:03:00,72.2,63.2,28.99,West,272,6.0,19.0,73,0.00,,,0.01,WUHU216DAVISVP2,2013-06-01 20:03:00,
2013-06-01 16:05:00,72.2,63.2,28.99,SW,221,6.0,19.0,73,0.00,,,0.01,WUHU216DAVISVP2,2013-06-01 20:05:00,
2013-06-01 16:06:00,72.1,63.0,28.98,West,260,7.0,19.0,73,0.00,,,0.01,WUHU216DAVISVP2,2013-06-01 20:06:00,
2013-06-01 16:07:00,72.1,63.0,28.98,West,262,5.0,19.0,73,0.00,,,0.01,WUHU216DAVISVP2,2013-06-01 20:07:00,
2013-06-01 16:09:00,72.0,62.9,28.98,West,260,8.0,19.0,73,0.00,,,0.01,WUHU216DAVISVP2,2013-06-01 20:09:00,
2013-06-01 16:10:00,71.9,62.8,28.98,West,271,8.0,19.0,73,0.00,,,0.01,WUHU216DAVISVP2,2013-06-01 20:10:00,
2013-06-01 16:11:00,71.9,62.9,28.98,WSW,253,10.0,19.0,73,0.00,,,0.01,WUHU216DAVISVP2,2013-06-01 20:11:00,
2013-06-01 16:12:00,71.9,62.9,28.98,WSW,245,11.0,19.0,73,0.00,,,0.01,WUHU216DAVISVP2,2013-06-01 20:12:00,
2013-06-01 16:14:00,71.9,63.2,28.98,WSW,254,9.0,18.0,74,0.00,,,0.01,WUHU216DAVISVP2,2013-06-01 20:14:00,
2013-06-01 16:15:00,71.8,63.1,28.98,WSW,253,9.0,18.0,74,0.00,,,0.01,WUHU216DAVISVP2,2013-06-01 20:15:00,
2013-06-01 16:16:00,71.9,63.2,28.98,WSW,249,10.0,18.0,74,0.00,,,0.01,WUHU216DAVISVP2,2013-06-01 20:16:00,
2013-06-01 16:17:00,71.8,63.1,28.98,WSW,247,21.0,22.0,74,0.00,,,0.01,WUHU216DAVISVP2,2013-06-01 20:17:00,
2013-06-01 16:19:00,71.8,63.1,28.99,West,264,7.0,22.0,74,0.00,,,0.01,WUHU216DAVISVP2,2013-06-01 20:19:00,
2013-06-01 16:20:00,71.8,63.2,28.99,SW,236,4.0,22.0,74,0.00,,,0.01,WUHU216DAVISVP2,2013-06-01 20:20:00,
2013-06-01 16:22:00,71.8,63.6,28.99,West,262,6.0,22.0,75,0.00,,,0.01,WUHU216DAVISVP2,2013-06-01 20:22:00,
2013-06-01 16:25:00,71.8,63.2,28.99,SW,215,10.0,22.0,74,0.00,,,0.01,WUHU216DAVISVP2,2013-06-01 20:25:00,
2013-06-01 16:27:00,71.8,63.6,28.99,WSW,253,8.0,22.0,75,0.00,,,0.01,WUHU216DAVISVP2,2013-06-01 20:27:00,
2013-06-01 16:30:00,71.8,63.4,28.99,SW,230,4.0,22.0,75,0.00,,,0.01,WUHU216DAVISVP2,2013-06-01 20:30:00,
2013-06-01 16:32:00,71.7,63.4,28.99,WSW,243,12.0,22.0,75,0.00,,,0.01,WUHU216DAVISVP2,2013-06-01 20:32:00,
2013-06-01 16:33:00,71.7,63.4,28.99,SW,230,7.0,22.0,75,0.00,,,0.01,WUHU216DAVISVP2,2013-06-01 20:33:00,
2013-06-01 16:35:00,71.7,63.7,28.98,West,264,7.0,22.0,76,0.00,,,0.01,WUHU216DAVISVP2,2013-06-01 20:35:00,
2013-06-01 16:36:00,71.7,63.7,28.99,West,264,5.0,14.0,76,0.00,,,0.01,WUHU216DAVISVP2,2013-06-01 20:36:00,
2013-06-01 16:37:00,71.7,63.9,28.98,WSW,241,1.0,14.0,76,0.00,,,0.01,WUHU216DAVISVP2,2013-06-01 20:37:00,
2013-06-01 16:38:00,71.7,63.9,28.98,SW,228,0.0,14.0,76,0.00,,,0.01,WUHU216DAVISVP2,2013-06-01 20:38:00,
2013-06-01 16:39:00,71.7,64.2,28.99,SW,229,4.0,14.0,77,0.00,,,0.01,WUHU216DAVISVP2,2013-06-01 20:39:00,
2013-06-01 16:40:00,71.8,64.3,28.99,SW,224,4.0,13.0,77,0.00,,,0.01,WUHU216DAVISVP2,2013-06-01 20:40:00,
2013-06-01 16:41:00,71.7,63.9,28.99,SSW,205,2.0,13.0,76,0.00,,,0.01,WUHU216DAVISVP2,2013-06-01 20:41:00,
2013-06-01 16:42:00,71.7,63.9,28.99,SW,228,5.0,13.0,76,0.00,,,0.01,WUHU216DAVISVP2,2013-06-01 20:42:00,
2013-06-01 16:43:00,71.7,64.2,28.99,West,268,8.0,13.0,77,0.00,,,0.01,WUHU216DAVISVP2,2013-06-01 20:43:00,
2013-06-01 16:44:00,71.7,64.2,28.99,WSW,245,7.0,13.0,77,0.00,,,0.01,WUHU216DAVISVP2,2013-06-01 20:44:00,
2013-06-01 16:46:00,71.6,63.8,28.99,WSW,245,6.0,13.0,76,0.00,,,0.01,WUHU216DAVISVP2,2013-06-01 20:46:00,
2013-06-01 16:47:00,71.6,63.6,28.98,WSW,241,10.0,13.0,76,0.00,,,0.01,WUHU216DAVISVP2,2013-06-01 20:47:00,
2013-06-01 16:48:00,71.5,63.5,28.98,WSW,254,7.0,13.0,76,0.00,,,0.01,WUHU216DAVISVP2,2013-06-01 20:48:00,
2013-06-01 16:49:00,71.5,63.5,28.98,WSW,238,4.0,13.0,76,0.00,,,0.01,WUHU216DAVISVP2,2013-06-01 20:49:00,
2013-06-01 16:51:00,71.5,63.5,28.98,WSW,254,7.0,13.0,76,0.00,,,0.01,WUHU216DAVISVP2,2013-06-01 20:51:00,
2013-06-01 16:52:00,71.6,63.6,28.98,WSW,251,5.0,13.0,76,0.00,,,0.01,WUHU216DAVISVP2,2013-06-01 20:52:00,
2013-06-01 16:53:00,71.5,63.5,28.98,WSW,241,15.0,15.0,76,0.00,,,0.01,WUHU216DAVISVP2,2013-06-01 20:53:00,
2013-06-01 16:54:00,71.5,63.5,28.98,WSW,258,6.0,15.0,76,0.00,,,0.01,WUHU216DAVISVP2,2013-06-01 20:54:00,
2013-06-01 16:56:00,71.5,63.5,28.98,West,280,5.0,15.0,76,0.00,,,0.01,WUHU216DAVISVP2,2013-06-01 20:56:00,
2013-06-01 16:58:00,71.6,63.8,28.98,West,262,10.0,15.0,76,0.00,,,0.01,WUHU216DAVISVP2,2013-06-01 20:58:00,
2013-06-01 16:59:00,71.6,63.8,28.98,West,273,7.0,15.0,76,0.00,,,0.01,WUHU216DAVISVP2,2013-06-01 20:59:00,
2013-06-01 17:01:00,71.5,63.7,28.99,WSW,249,10.0,15.0,76,0.00,,,0.01,WUHU216DAVISVP2,2013-06-01 21:01:00,
2013-06-01 17:02:00,71.5,63.3,28.99,WSW,241,8.0,15.0,75,0.00,,,0.01,WUHU216DAVISVP2,2013-06-01 21:02:00,
2013-06-01 17:03:00,71.5,63.7,28.99,West,268,10.0,15.0,76,0.00,,,0.01,WUHU216DAVISVP2,2013-06-01 21:03:00,
2013-06-01 17:04:00,71.4,63.6,28.99,WSW,255,7.0,15.0,76,0.00,,,0.01,WUHU216DAVISVP2,2013-06-01 21:04:00,
2013-06-01 17:06:00,71.4,63.9,28.99,West,273,1.0,15.0,77,0.00,,,0.01,WUHU216DAVISVP2,2013-06-01 21:06:00,
2013-06-01 17:07:00,71.4,63.6,28.99,West,266,9.0,15.0,76,0.00,,,0.01,WUHU216DAVISVP2,2013-06-01 21:07:00,
2013-06-01 17:08:00,71.4,63.6,28.99,WSW,243,13.0,15.0,76,0.00,,,0.01,WUHU216DAVISVP2,2013-06-01 21:08:00,
2013-06-01 17:09:00,71.3,63.5,28.99,WNW,300,12.0,15.0,76,0.00,,,0.01,WUHU216DAVISVP2,2013-06-01 21:09:00,
2013-06-01 17:11:00,71.2,63.2,28.99,West,263,11.0,15.0,76,0.00,,,0.01,WUHU216DAVISVP2,2013-06-01 21:11:00,
2013-06-01 17:12:00,71.2,63.2,28.99,WSW,256,11.0,14.0,76,0.00,,,0.01,WUHU216DAVISVP2,2013-06-01 21:12:00,
2013-06-01 17:14:00,71.2,63.2,28.99,WSW,257,7.0,14.0,76,0.00,,,0.01,WUHU216DAVISVP2,2013-06-01 21:14:00,
2013-06-01 17:17:00,71.1,63.6,28.99,WSW,247,7.0,14.0,77,0.00,,,0.01,WUHU216DAVISVP2,2013-06-01 21:17:00,
2013-06-01 17:19:00,71.2,63.7,28.99,WSW,256,13.0,14.0,77,0.00,,,0.01,WUHU216DAVISVP2,2013-06-01 21:19:00,
2013-06-01 17:22:00,71.2,63.7,28.98,SSW,204,5.0,14.0,77,0.00,,,0.01,WUHU216DAVISVP2,2013-06-01 21:22:00,
2013-06-01 17:23:00,71.2,63.7,28.98,WSW,237,9.0,14.0,77,0.00,,,0.01,WUHU216DAVISVP2,2013-06-01 21:23:00,
2013-06-01 17:24:00,71.2,63.7,28.98,SW,222,4.0,14.0,77,0.00,,,0.01,WUHU216DAVISVP2,2013-06-01 21:24:00,
2013-06-01 17:25:00,71.2,63.7,28.97,SW,223,8.0,14.0,77,0.00,,,0.01,WUHU216DAVISVP2,2013-06-01 21:25:00,
2013-06-01 17:27:00,71.3,63.8,28.97,South,191,6.0,14.0,77,0.00,,,0.01,WUHU216DAVISVP2,2013-06-01 21:27:00,
2013-06-01 17:28:00,71.3,63.8,28.97,SSW,209,0.0,14.0,77,0.00,,,0.01,WUHU216DAVISVP2,2013-06-01 21:28:00,
2013-06-01 17:30:00,71.3,63.7,28.97,South,178,7.0,14.0,77,0.00,,,0.01,WUHU216DAVISVP2,2013-06-01 21:30:00,
2013-06-01 17:32:00,71.2,63.6,28.97,South,190,9.0,14.0,77,0.00,,,0.01,WUHU216DAVISVP2,2013-06-01 21:32:00,
2013-06-01 17:33:00,71.3,63.7,28.97,WSW,244,11.0,14.0,77,0.00,,,0.01,WUHU216DAVISVP2,2013-06-01 21:33:00,
2013-06-01 17:35:00,71.2,63.6,28.97,WSW,247,3.0,14.0,77,0.00,,,0.01,WUHU216DAVISVP2,2013-06-01 21:35:00,
2013-06-01 17:38:00,71.2,64.0,28.96,SSE,165,6.0,14.0,78,0.00,,,0.01,WUHU216DAVISVP2,2013-06-01 21:38:00,
2013-06-01 17:40:00,71.2,64.1,28.96,SW,216,3.0,14.0,78,0.00,,,0.01,WUHU216DAVISVP2,2013-06-01 21:40:00,
2013-06-01 17:43:00,71.3,64.5,28.97,SSW,199,1.0,14.0,79,0.00,,,0.01,WUHU216DAVISVP2,2013-06-01 21:43:00,
2013-06-01 17:45:00,71.3,64.2,28.97,WSW,239,5.0,14.0,78,0.00,,,0.01,WUHU216DAVISVP2,2013-06-01 21:45:00,
2013-06-01 17:46:00,71.3,64.2,28.97,SW,236,10.0,14.0,78,0.00,,,0.01,WUHU216DAVISVP2,2013-06-01 21:46:00,
2013-06-01 17:49:00,71.4,63.8,28.96,WSW,250,4.0,14.0,77,0.00,,,0.01,WUHU216DAVISVP2,2013-06-01 21:49:00,
2013-06-01 17:50:00,71.5,64.3,28.96,SW,217,1.0,14.0,78,0.00,,,0.01,WUHU216DAVISVP2,2013-06-01 21:50:00,
2013-06-01 17:51:00,71.5,64.3,28.96,WSW,245,7.0,14.0,78,0.00,,,0.01,WUHU216DAVISVP2,2013-06-01 21:51:00,
2013-06-01 17:54:00,71.8,64.7,28.97,WSW,249,9.0,12.0,78,0.00,,,0.01,WUHU216DAVISVP2,2013-06-01 21:54:00,
2013-06-01 17:56:00,71.9,64.7,28.97,WSW,249,9.0,12.0,78,0.00,,,0.01,WUHU216DAVISVP2,2013-06-01 21:56:00,
2013-06-01 17:59:00,72.0,64.4,28.96,South,189,7.0,16.0,77,0.00,,,0.01,WUHU216DAVISVP2,2013-06-01 21:59:00,
2013-06-01 18:01:00,72.0,64.4,28.97,SW,232,5.0,16.0,77,0.00,,,0.01,WUHU216DAVISVP2,2013-06-01 22:01:00,
2013-06-01 18:04:00,72.1,64.6,28.97,SW,222,5.0,16.0,77,0.00,,,0.01,WUHU216DAVISVP2,2013-06-01 22:04:00,
2013-06-01 18:06:00,72.1,64.6,28.97,South,181,4.0,16.0,77,0.00,,,0.01,WUHU216DAVISVP2,2013-06-01 22:06:00,
2013-06-01 18:07:00,72.1,64.6,28.97,South,175,8.0,16.0,77,0.00,,,0.01,WUHU216DAVISVP2,2013-06-01 22:07:00,
2013-06-01 18:09:00,72.1,64.6,28.97,SW,220,1.0,16.0,77,0.00,,,0.01,WUHU216DAVISVP2,2013-06-01 22:09:00,
2013-06-01 18:11:00,72.2,65.0,28.96,WSW,245,7.0,16.0,78,0.00,,,0.01,WUHU216DAVISVP2,2013-06-01 22:11:00,
2013-06-01 18:12:00,72.2,65.0,28.96,WSW,245,5.0,16.0,78,0.00,,,0.01,WUHU216DAVISVP2,2013-06-01 22:12:00,
2013-06-01 18:14:00,72.4,64.8,28.96,SW,216,2.0,16.0,77,0.00,,,0.01,WUHU216DAVISVP2,2013-06-01 22:14:00,
2013-06-01 18:15:00,72.4,65.2,28.96,SW,216,1.0,16.0,78,0.00,,,0.01,WUHU216DAVISVP2,2013-06-01 22:15:00,
2013-06-01 18:16:00,72.4,64.8,28.95,WSW,250,7.0,16.0,77,0.00,,,0.01,WUHU216DAVISVP2,2013-06-01 22:16:00,
2013-06-01 18:17:00,72.4,64.8,28.95,SSW,208,1.0,16.0,77,0.00,,,0.01,WUHU216DAVISVP2,2013-06-01 22:17:00,
2013-06-01 18:20:00,72.4,64.8,28.95,WSW,258,5.0,14.0,77,0.00,,,0.01,WUHU216DAVISVP2,2013-06-01 22:20:00,
2013-06-01 18:21:00,72.4,64.9,28.95,South,188,10.0,14.0,77,0.00,,,0.01,WUHU216DAVISVP2,2013-06-01 22:21:00,
2013-06-01 18:22:00,72.4,64.9,28.95,South,188,6.0,14.0,77,0.00,,,0.01,WUHU216DAVISVP2,2013-06-01 22:22:00,
2013-06-01 18:25:00,72.4,64.9,28.95,SSW,197,1.0,14.0,77,0.00,,,0.01,WUHU216DAVISVP2,2013-06-01 22:25:00,
2013-06-01 18:26:00,72.4,64.9,28.95,SW,233,8.0,14.0,77,0.00,,,0.01,WUHU216DAVISVP2,2013-06-01 22:26:00,
2013-06-01 18:27:00,72.4,64.9,28.95,SW,233,12.0,14.0,77,0.00,,,0.01,WUHU216DAVISVP2,2013-06-01 22:27:00,
2013-06-01 18:30:00,72.5,65.2,28.95,SSW,209,2.0,13.0,78,0.00,,,0.01,WUHU216DAVISVP2,2013-06-01 22:30:00,
2013-06-01 18:32:00,72.6,65.3,28.94,WSW,239,4.0,13.0,78,0.00,,,0.01,WUHU216DAVISVP2,2013-06-01 22:32:00,
2013-06-01 18:36:00,72.8,65.2,28.94,WSW,258,6.0,12.0,77,0.00,,,0.01,WUHU216DAVISVP2,2013-06-01 22:36:00,
2013-06-01 18:37:00,72.8,65.2,28.95,SW,231,1.0,12.0,77,0.00,,,0.01,WUHU216DAVISVP2,2013-06-01 22:37:00,
2013-06-01 18:41:00,72.9,65.4,28.95,WSW,252,6.0,12.0,77,0.00,,,0.01,WUHU216DAVISVP2,2013-06-01 22:41:00,
2013-06-01 18:42:00,72.9,65.4,28.95,SW,228,2.0,12.0,77,0.00,,,0.01,WUHU216DAVISVP2,2013-06-01 22:42:00,
2013-06-01 18:46:00,72.6,65.1,28.95,SW,214,2.0,13.0,77,0.00,,,0.01,WUHU216DAVISVP2,2013-06-01 22:46:00,
2013-06-01 18:47:00,72.5,65.0,28.94,SW,214,7.0,13.0,77,0.00,,,0.01,WUHU216DAVISVP2,2013-06-01 22:47:00,
2013-06-01 18:48:00,72.4,64.8,28.95,SW,216,9.0,13.0,77,0.00,,,0.01,WUHU216DAVISVP2,2013-06-01 22:48:00,
2013-06-01 18:51:00,72.2,64.6,28.95,SW,231,7.0,13.0,77,0.00,,,0.01,WUHU216DAVISVP2,2013-06-01 22:51:00,
2013-06-01 18:52:00,72.3,64.7,28.95,WSW,241,6.0,13.0,77,0.00,,,0.01,WUHU216DAVISVP2,2013-06-01 22:52:00,
2013-06-01 18:53:00,72.2,65.0,28.94,SSW,192,8.0,13.0,78,0.00,,,0.01,WUHU216DAVISVP2,2013-06-01 22:53:00,
2013-06-01 18:56:00,72.2,65.1,28.95,South,181,4.0,13.0,78,0.00,,,0.01,WUHU216DAVISVP2,2013-06-01 22:56:00,
2013-06-01 18:57:00,72.3,65.2,28.95,WSW,247,7.0,14.0,78,0.00,,,0.01,WUHU216DAVISVP2,2013-06-01 22:57:00,
2013-06-01 18:58:00,72.3,65.2,28.95,WSW,239,6.0,14.0,78,0.00,,,0.01,WUHU216DAVISVP2,2013-06-01 22:58:00,
2013-06-01 19:02:00,72.3,65.2,28.95,SW,233,10.0,15.0,78,0.00,,,0.01,WUHU216DAVISVP2,2013-06-01 23:02:00,
2013-06-01 19:03:00,72.3,65.2,28.95,WNW,287,6.0,15.0,78,0.00,,,0.01,WUHU216DAVISVP2,2013-06-01 23:03:00,
2013-06-01 19:07:00,72.2,65.1,28.94,SW,228,5.0,16.0,78,0.00,,,0.01,WUHU216DAVISVP2,2013-06-01 23:07:00,
2013-06-01 19:08:00,72.2,65.0,28.94,SW,220,5.0,16.0,78,0.00,,,0.01,WUHU216DAVISVP2,2013-06-01 23:08:00,
2013-06-01 19:09:00,72.1,64.9,28.94,SW,235,11.0,16.0,78,0.00,,,0.01,WUHU216DAVISVP2,2013-06-01 23:09:00,
2013-06-01 19:12:00,72.1,64.9,28.94,WSW,253,10.0,18.0,78,0.00,,,0.01,WUHU216DAVISVP2,2013-06-01 23:12:00,
2013-06-01 19:13:00,72.1,64.9,28.94,SW,228,5.0,18.0,78,0.00,,,0.01,WUHU216DAVISVP2,2013-06-01 23:13:00,
2013-06-01 19:14:00,72.1,64.9,28.94,WSW,243,9.0,18.0,78,0.00,,,0.01,WUHU216DAVISVP2,2013-06-01 23:14:00,
2013-06-01 19:17:00,72.1,64.9,28.94,SW,229,6.0,18.0,78,0.00,,,0.01,WUHU216DAVISVP2,2013-06-01 23:17:00,
2013-06-01 19:18:00,72.1,65.0,28.94,WSW,258,7.0,18.0,78,0.00,,,0.01,WUHU216DAVISVP2,2013-06-01 23:18:00,
2013-06-01 19:19:00,72.1,65.3,28.94,WSW,241,4.0,18.0,79,0.00,,,0.01,WUHU216DAVISVP2,2013-06-01 23:19:00,
2013-06-01 19:22:00,72.1,65.3,28.94,WSW,242,2.0,18.0,79,0.00,,,0.01,WUHU216DAVISVP2,2013-06-01 23:22:00,
2013-06-01 19:23:00,72.1,65.3,28.94,WSW,242,1.0,18.0,79,0.00,,,0.01,WUHU216DAVISVP2,2013-06-01 23:23:00,
2013-06-01 19:24:00,72.1,65.3,28.94,SW,218,4.0,18.0,79,0.00,,,0.01,WUHU216DAVISVP2,2013-06-01 23:24:00,
2013-06-01 19:28:00,72.0,65.2,28.94,WSW,251,10.0,18.0,79,0.00,,,0.01,WUHU216DAVISVP2,2013-06-01 23:28:00,
2013-06-01 19:29:00,72.0,65.2,28.94,SSW,199,7.0,18.0,79,0.00,,,0.01,WUHU216DAVISVP2,2013-06-01 23:29:00,
2013-06-01 19:33:00,71.9,65.4,28.94,WSW,250,7.0,12.0,80,0.00,,,0.01,WUHU216DAVISVP2,2013-06-01 23:33:00,
2013-06-01 19:35:00,71.9,65.4,28.94,WSW,238,5.0,11.0,80,0.00,,,0.01,WUHU216DAVISVP2,2013-06-01 23:35:00,
2013-06-01 19:38:00,71.8,65.4,28.94,SSW,208,1.0,12.0,80,0.00,,,0.01,WUHU216DAVISVP2,2013-06-01 23:38:00,
2013-06-01 19:40:00,71.8,65.3,28.94,SSW,196,4.0,12.0,80,0.00,,,0.01,WUHU216DAVISVP2,2013-06-01 23:40:00,
2013-06-01 19:43:00,71.8,65.3,28.94,SW,218,4.0,12.0,80,0.00,,,0.01,WUHU216DAVISVP2,2013-06-01 23:43:00,
2013-06-01 19:45:00,71.9,65.4,28.94,SW,215,2.0,12.0,80,0.00,,,0.01,WUHU216DAVISVP2,2013-06-01 23:45:00,
2013-06-01 19:46:00,71.9,65.4,28.93,SW,221,2.0,12.0,80,0.00,,,0.01,WUHU216DAVISVP2,2013-06-01 23:46:00,
2013-06-01 19:48:00,71.9,65.4,28.93,WSW,249,6.0,12.0,80,0.00,,,0.01,WUHU216DAVISVP2,2013-06-01 23:48:00,
2013-06-01 19:50:00,72.0,65.5,28.93,SW,225,1.0,12.0,80,0.00,,,0.01,WUHU216DAVISVP2,2013-06-01 23:50:00,
2013-06-01 19:51:00,72.0,65.6,28.93,SSW,206,1.0,12.0,80,0.00,,,0.01,WUHU216DAVISVP2,2013-06-01 23:51:00,
2013-06-01 19:53:00,72.0,65.6,28.93,WSW,246,6.0,12.0,80,0.00,,,0.01,WUHU216DAVISVP2,2013-06-01 23:53:00,
2013-06-01 19:55:00,71.9,65.5,28.93,SSW,208,0.0,12.0,80,0.00,,,0.01,WUHU216DAVISVP2,2013-06-01 23:55:00,
2013-06-01 19:56:00,71.9,65.5,28.94,West,272,6.0,10.0,80,0.00,,,0.01,WUHU216DAVISVP2,2013-06-01 23:56:00,
2013-06-01 19:58:00,71.9,65.8,28.94,WSW,241,2.0,10.0,81,0.00,,,0.01,WUHU216DAVISVP2,2013-06-01 23:58:00,
2013-06-01 20:00:00,71.9,65.5,28.94,WSW,256,3.0,10.0,80,0.00,,,0.01,WUHU216DAVISVP2,2013-06-02 00:00:00,
2013-06-01 20:02:00,72.0,65.6,28.93,WSW,243,4.0,10.0,80,0.00,,,0.01,WUHU216DAVISVP2,2013-06-02 00:02:00,
2013-06-01 20:03:00,71.9,65.5,28.93,WSW,247,6.0,10.0,80,0.00,,,0.01,WUHU216DAVISVP2,2013-06-02 00:03:00,
2013-06-01 20:04:00,71.9,65.5,28.93,WSW,246,7.0,10.0,80,0.00,,,0.01,WUHU216DAVISVP2,2013-06-02 00:04:00,
2013-06-01 20:06:00,72.0,65.9,28.93,SSW,210,4.0,11.0,81,0.00,,,0.01,WUHU216DAVISVP2,2013-06-02 00:06:00,
2013-06-01 20:07:00,72.0,65.6,28.93,WSW,243,7.0,11.0,80,0.00,,,0.01,WUHU216DAVISVP2,2013-06-02 00:07:00,
2013-06-01 20:09:00,72.0,65.9,28.93,WSW,241,7.0,11.0,81,0.00,,,0.01,WUHU216DAVISVP2,2013-06-02 00:09:00,
2013-06-01 20:11:00,72.0,65.9,28.93,WSW,248,2.0,11.0,81,0.00,,,0.01,WUHU216DAVISVP2,2013-06-02 00:11:00,
2013-06-01 20:12:00,72.0,65.9,28.93,SSW,213,4.0,11.0,81,0.00,,,0.01,WUHU216DAVISVP2,2013-06-02 00:12:00,
2013-06-01 20:14:00,72.0,65.9,28.93,South,181,2.0,11.0,81,0.00,,,0.01,WUHU216DAVISVP2,2013-06-02 00:14:00,
2013-06-01 20:15:00,72.0,65.9,28.93,WSW,241,9.0,11.0,81,0.00,,,0.01,WUHU216DAVISVP2,2013-06-02 00:15:00,
2013-06-01 20:16:00,72.0,65.9,28.93,WSW,245,5.0,11.0,81,0.00,,,0.01,WUHU216DAVISVP2,2013-06-02 00:16:00,
2013-06-01 20:18:00,72.0,65.9,28.94,WSW,245,6.0,11.0,81,0.00,,,0.01,WUHU216DAVISVP2,2013-06-02 00:18:00,
2013-06-01 20:19:00,72.0,65.9,28.93,WSW,246,4.0,11.0,81,0.00,,,0.01,WUHU216DAVISVP2,2013-06-02 00:19:00,
2013-06-01 20:20:00,72.0,65.9,28.94,WSW,246,4.0,11.0,81,0.00,,,0.01,WUHU216DAVISVP2,2013-06-02 00:20:00,
2013-06-01 20:22:00,72.0,65.9,28.93,WSW,246,3.0,11.0,81,0.00,,,0.01,WUHU216DAVISVP2,2013-06-02 00:22:00,
2013-06-01 20:23:00,72.0,65.9,28.93,WSW,246,4.0,11.0,81,0.00,,,0.01,WUHU216DAVISVP2,2013-06-02 00:23:00,
2013-06-01 20:24:00,71.9,65.8,28.93,WSW,246,3.0,11.0,81,0.00,,,0.01,WUHU216DAVISVP2,2013-06-02 00:24:00,
2013-06-01 20:25:00,71.9,65.8,28.93,WSW,246,1.0,11.0,81,0.00,,,0.01,WUHU216DAVISVP2,2013-06-02 00:25:00,
2013-06-01 20:27:00,71.9,65.8,28.93,WSW,246,0.0,11.0,81,0.00,,,0.01,WUHU216DAVISVP2,2013-06-02 00:27:00,
2013-06-01 20:28:00,71.9,65.8,28.93,WSW,246,0.0,11.0,81,0.00,,,0.01,WUHU216DAVISVP2,2013-06-02 00:28:00,
2013-06-01 20:29:00,71.8,66.1,28.93,WSW,246,1.0,11.0,82,0.00,,,0.01,WUHU216DAVISVP2,2013-06-02 00:29:00,
2013-06-01 20:30:00,71.8,66.1,28.93,WSW,246,0.0,11.0,82,0.00,,,0.01,WUHU216DAVISVP2,2013-06-02 00:30:00,
2013-06-01 20:32:00,71.7,66.0,28.93,WSW,246,7.0,11.0,82,0.00,,,0.01,WUHU216DAVISVP2,2013-06-02 00:32:00,
2013-06-01 20:34:00,71.7,66.0,28.93,WSW,246,4.0,8.0,82,0.00,,,0.01,WUHU216DAVISVP2,2013-06-02 00:34:00,
2013-06-01 20:35:00,71.7,66.0,28.93,SW,229,2.0,11.0,82,0.00,,,0.01,WUHU216DAVISVP2,2013-06-02 00:35:00,
2013-06-01 20:37:00,71.6,65.9,28.93,SW,215,3.0,11.0,82,0.00,,,0.01,WUHU216DAVISVP2,2013-06-02 00:37:00,
2013-06-01 20:39:00,71.6,65.9,28.93,SW,228,1.0,11.0,82,0.00,,,0.01,WUHU216DAVISVP2,2013-06-02 00:39:00,
2013-06-01 20:40:00,71.6,65.9,28.93,SW,228,4.0,11.0,82,0.00,,,0.01,WUHU216DAVISVP2,2013-06-02 00:40:00,
2013-06-01 20:41:00,71.6,65.9,28.93,SW,228,2.0,11.0,82,0.00,,,0.01,WUHU216DAVISVP2,2013-06-02 00:41:00,
2013-06-01 20:43:00,71.6,66.2,28.94,SW,234,6.0,11.0,83,0.00,,,0.01,WUHU216DAVISVP2,2013-06-02 00:43:00,
2013-06-01 20:44:00,71.6,66.2,28.93,SW,234,1.0,11.0,83,0.00,,,0.01,WUHU216DAVISVP2,2013-06-02 00:44:00,
2013-06-01 20:45:00,71.5,66.1,28.93,SW,234,1.0,11.0,83,0.00,,,0.01,WUHU216DAVISVP2,2013-06-02 00:45:00,
2013-06-01 20:46:00,71.5,66.1,28.93,SW,234,4.0,11.0,83,0.00,,,0.01,WUHU216DAVISVP2,2013-06-02 00:46:00,
2013-06-01 20:48:00,71.5,66.1,28.93,SW,229,5.0,11.0,83,0.00,,,0.01,WUHU216DAVISVP2,2013-06-02 00:48:00,
2013-06-01 20:49:00,71.5,66.1,28.93,WSW,244,2.0,11.0,83,0.00,,,0.01,WUHU216DAVISVP2,2013-06-02 00:49:00,
2013-06-01 20:50:00,71.5,66.1,28.93,WSW,245,4.0,11.0,83,0.00,,,0.01,WUHU216DAVISVP2,2013-06-02 00:50:00,
2013-06-01 20:51:00,71.5,66.1,28.93,WSW,237,5.0,11.0,83,0.00,,,0.01,WUHU216DAVISVP2,2013-06-02 00:51:00,
2013-06-01 20:52:00,71.5,66.1,28.92,SW,228,5.0,11.0,83,0.00,,,0.01,WUHU216DAVISVP2,2013-06-02 00:52:00,
2013-06-01 20:53:00,71.5,66.1,28.92,SSW,203,5.0,8.0,83,0.00,,,0.01,WUHU216DAVISVP2,2013-06-02 00:53:00,
2013-06-01 20:54:00,71.5,66.1,28.92,SSW,202,0.0,8.0,83,0.00,,,0.01,WUHU216DAVISVP2,2013-06-02 00:54:00,
2013-06-01 20:56:00,71.5,66.1,28.92,WSW,242,1.0,8.0,83,0.00,,,0.01,WUHU216DAVISVP2,2013-06-02 00:56:00,
2013-06-01 20:57:00,71.5,66.1,28.93,SW,227,4.0,8.0,83,0.00,,,0.01,WUHU216DAVISVP2,2013-06-02 00:57:00,
2013-06-01 20:59:00,71.4,66.0,28.93,SW,228,4.0,8.0,83,0.00,,,0.01,WUHU216DAVISVP2,2013-06-02 00:59:00,
2013-06-01 21:01:00,71.4,66.0,28.93,SW,227,4.0,8.0,83,0.00,,,0.01,WUHU216DAVISVP2,2013-06-02 01:01:00,
2013-06-01 21:02:00,71.4,66.0,28.92,WSW,258,7.0,12.0,83,0.00,,,0.01,WUHU216DAVISVP2,2013-06-02 01:02:00,
2013-06-01 21:04:00,71.4,66.0,28.92,WSW,257,7.0,12.0,83,0.00,,,0.01,WUHU216DAVISVP2,2013-06-02 01:04:00,
2013-06-01 21:06:00,71.5,65.8,28.92,WSW,251,7.0,15.0,82,0.00,,,0.01,WUHU216DAVISVP2,2013-06-02 01:06:00,
2013-06-01 21:07:00,71.5,65.8,28.92,WSW,258,6.0,15.0,82,0.00,,,0.01,WUHU216DAVISVP2,2013-06-02 01:07:00,
2013-06-01 21:09:00,71.6,65.9,28.92,WSW,241,8.0,15.0,82,0.00,,,0.01,WUHU216DAVISVP2,2013-06-02 01:09:00,
2013-06-01 21:11:00,71.7,66.0,28.92,WSW,251,4.0,15.0,82,0.00,,,0.01,WUHU216DAVISVP2,2013-06-02 01:11:00,
2013-06-01 21:12:00,71.7,65.6,28.92,WSW,256,10.0,15.0,81,0.00,,,0.01,WUHU216DAVISVP2,2013-06-02 01:12:00,
2013-06-01 21:14:00,71.7,65.6,28.93,WSW,251,9.0,15.0,81,0.00,,,0.01,WUHU216DAVISVP2,2013-06-02 01:14:00,
2013-06-01 21:15:00,71.7,65.6,28.93,West,260,7.0,15.0,81,0.00,,,0.01,WUHU216DAVISVP2,2013-06-02 01:15:00,
2013-06-01 21:16:00,71.7,65.3,28.93,West,278,5.0,15.0,80,0.00,,,0.01,WUHU216DAVISVP2,2013-06-02 01:16:00,
2013-06-01 21:17:00,71.7,65.3,28.93,WSW,247,8.0,15.0,80,0.00,,,0.01,WUHU216DAVISVP2,2013-06-02 01:17:00,
2013-06-01 21:20:00,71.7,65.3,28.93,SW,236,2.0,15.0,80,0.00,,,0.01,WUHU216DAVISVP2,2013-06-02 01:20:00,
2013-06-01 21:21:00,71.7,65.3,28.93,West,266,6.0,15.0,80,0.00,,,0.01,WUHU216DAVISVP2,2013-06-02 01:21:00,
2013-06-01 21:22:00,71.7,65.3,28.92,WSW,250,8.0,15.0,80,0.00,,,0.01,WUHU216DAVISVP2,2013-06-02 01:22:00,
2013-06-01 21:23:00,71.7,64.9,28.92,SW,221,8.0,29.0,79,0.00,,,0.01,WUHU216DAVISVP2,2013-06-02 01:23:00,
2013-06-01 21:25:00,71.7,64.6,28.92,South,191,10.0,29.0,78,0.00,,,0.01,WUHU216DAVISVP2,2013-06-02 01:25:00,
2013-06-01 21:26:00,71.7,64.6,28.92,WSW,248,8.0,29.0,78,0.00,,,0.01,WUHU216DAVISVP2,2013-06-02 01:26:00,
2013-06-01 21:27:00,71.7,64.6,28.92,WSW,239,6.0,29.0,78,0.00,,,0.01,WUHU216DAVISVP2,2013-06-02 01:27:00,
2013-06-01 21:28:00,71.7,64.6,28.92,WSW,251,7.0,29.0,78,0.00,,,0.01,WUHU216DAVISVP2,2013-06-02 01:28:00,
2013-06-01 21:30:00,71.7,64.6,28.92,WSW,247,5.0,29.0,78,0.00,,,0.01,WUHU216DAVISVP2,2013-06-02 01:30:00,
2013-06-01 21:31:00,71.7,64.6,28.92,South,170,2.0,29.0,78,0.00,,,0.01,WUHU216DAVISVP2,2013-06-02 01:31:00,
2013-06-01 21:32:00,71.6,64.5,28.92,WSW,239,14.0,29.0,78,0.00,,,0.01,WUHU216DAVISVP2,2013-06-02 01:32:00,
2013-06-01 21:33:00,71.6,64.5,28.92,WSW,247,9.0,29.0,78,0.00,,,0.01,WUHU216DAVISVP2,2013-06-02 01:33:00,
2013-06-01 21:35:00,71.5,64.0,28.92,WSW,249,8.0,29.0,77,0.00,,,0.01,WUHU216DAVISVP2,2013-06-02 01:35:00,
2013-06-01 21:36:00,71.6,64.1,28.92,WSW,239,9.0,29.0,77,0.00,,,0.01,WUHU216DAVISVP2,2013-06-02 01:36:00,
2013-06-01 21:37:00,71.5,64.0,28.92,SW,226,10.0,29.0,77,0.00,,,0.01,WUHU216DAVISVP2,2013-06-02 01:37:00,
2013-06-01 21:38:00,71.5,64.0,28.92,SW,234,6.0,29.0,77,0.00,,,0.01,WUHU216DAVISVP2,2013-06-02 01:38:00,
2013-06-01 21:40:00,71.5,64.0,28.92,WSW,242,9.0,29.0,77,0.00,,,0.01,WUHU216DAVISVP2,2013-06-02 01:40:00,
2013-06-01 21:41:00,71.5,64.0,28.92,West,260,7.0,19.0,77,0.00,,,0.01,WUHU216DAVISVP2,2013-06-02 01:41:00,
2013-06-01 21:42:00,71.5,64.0,28.92,WSW,239,8.0,19.0,77,0.00,,,0.01,WUHU216DAVISVP2,2013-06-02 01:42:00,
2013-06-01 21:43:00,71.5,64.0,28.92,WSW,252,14.0,19.0,77,0.00,,,0.01,WUHU216DAVISVP2,2013-06-02 01:43:00,
2013-06-01 21:45:00,71.4,63.9,28.92,West,273,6.0,19.0,77,0.00,,,0.01,WUHU216DAVISVP2,2013-06-02 01:45:00,
2013-06-01 21:46:00,71.4,63.9,28.92,WSW,250,14.0,19.0,77,0.00,,,0.01,WUHU216DAVISVP2,2013-06-02 01:46:00,
2013-06-01 21:47:00,71.4,63.9,28.92,West,262,8.0,19.0,77,0.00,,,0.01,WUHU216DAVISVP2,2013-06-02 01:47:00,
2013-06-01 21:48:00,71.3,63.8,28.92,WSW,256,7.0,19.0,77,0.00,,,0.01,WUHU216DAVISVP2,2013-06-02 01:48:00,
2013-06-01 21:50:00,71.2,63.7,28.92,West,266,7.0,19.0,77,0.00,,,0.01,WUHU216DAVISVP2,2013-06-02 01:50:00,
2013-06-01 21:51:00,71.2,64.1,28.92,SW,214,10.0,19.0,78,0.00,,,0.01,WUHU216DAVISVP2,2013-06-02 01:51:00,
2013-06-01 21:52:00,71.2,64.1,28.92,WSW,252,8.0,19.0,78,0.00,,,0.01,WUHU216DAVISVP2,2013-06-02 01:52:00,
2013-06-01 21:53:00,71.1,64.0,28.92,WSW,239,9.0,19.0,78,0.00,,,0.01,WUHU216DAVISVP2,2013-06-02 01:53:00,
2013-06-01 21:55:00,71.1,64.0,28.92,WSW,245,6.0,19.0,78,0.00,,,0.01,WUHU216DAVISVP2,2013-06-02 01:55:00,
2013-06-01 21:57:00,71.0,63.9,28.92,SW,218,9.0,19.0,78,0.00,,,0.01,WUHU216DAVISVP2,2013-06-02 01:57:00,
2013-06-01 21:58:00,71.0,63.9,28.92,WSW,240,7.0,20.0,78,0.00,,,0.01,WUHU216DAVISVP2,2013-06-02 01:58:00,
2013-06-01 21:59:00,71.0,63.9,28.92,WSW,245,9.0,20.0,78,0.00,,,0.01,WUHU216DAVISVP2,2013-06-02 01:59:00,
2013-06-01 22:01:00,70.9,63.8,28.92,WSW,242,10.0,20.0,78,0.00,,,0.01,WUHU216DAVISVP2,2013-06-02 02:01:00,
2013-06-01 22:02:00,70.9,63.8,28.92,WSW,248,5.0,20.0,78,0.00,,,0.01,WUHU216DAVISVP2,2013-06-02 02:02:00,
2013-06-01 22:03:00,70.9,63.8,28.92,SW,235,2.0,20.0,78,0.00,,,0.01,WUHU216DAVISVP2,2013-06-02 02:03:00,
2013-06-01 22:04:00,70.8,64.1,28.92,WSW,252,8.0,20.0,79,0.00,,,0.01,WUHU216DAVISVP2,2013-06-02 02:04:00,
2013-06-01 22:06:00,70.8,64.1,28.92,WSW,247,11.0,20.0,79,0.00,,,0.01,WUHU216DAVISVP2,2013-06-02 02:06:00,
2013-06-01 22:07:00,70.8,64.1,28.92,WSW,243,10.0,20.0,79,0.00,,,0.01,WUHU216DAVISVP2,2013-06-02 02:07:00,
2013-06-01 22:08:00,70.7,64.0,28.92,WSW,253,10.0,20.0,79,0.00,,,0.01,WUHU216DAVISVP2,2013-06-02 02:08:00,
2013-06-01 22:10:00,70.7,64.0,28.92,WSW,237,7.0,20.0,79,0.00,,,0.01,WUHU216DAVISVP2,2013-06-02 02:10:00,
2013-06-01 22:11:00,70.7,64.0,28.92,West,268,8.0,20.0,79,0.00,,,0.01,WUHU216DAVISVP2,2013-06-02 02:11:00,
2013-06-01 22:13:00,70.7,64.0,28.92,WSW,254,3.0,20.0,79,0.00,,,0.01,WUHU216DAVISVP2,2013-06-02 02:13:00,
2013-06-01 22:15:00,70.6,64.2,28.93,WSW,258,10.0,20.0,80,0.00,,,0.01,WUHU216DAVISVP2,2013-06-02 02:15:00,
2013-06-01 22:16:00,70.6,64.2,28.92,WSW,245,9.0,19.0,80,0.00,,,0.01,WUHU216DAVISVP2,2013-06-02 02:16:00,
2013-06-01 22:18:00,70.5,64.1,28.92,WSW,253,11.0,19.0,80,0.00,,,0.01,WUHU216DAVISVP2,2013-06-02 02:18:00,
2013-06-01 22:20:00,70.5,63.8,28.92,West,260,6.0,20.0,79,0.00,,,0.01,WUHU216DAVISVP2,2013-06-02 02:20:00,
2013-06-01 22:21:00,70.5,64.1,28.92,West,265,11.0,20.0,80,0.00,,,0.01,WUHU216DAVISVP2,2013-06-02 02:21:00,
2013-06-01 22:23:00,70.4,63.7,28.92,SW,228,9.0,20.0,79,0.00,,,0.01,WUHU216DAVISVP2,2013-06-02 02:23:00,
2013-06-01 22:26:00,70.4,64.0,28.92,WSW,251,13.0,20.0,80,0.00,,,0.01,WUHU216DAVISVP2,2013-06-02 02:26:00,
2013-06-01 22:28:00,70.4,63.7,28.92,West,260,8.0,20.0,79,0.00,,,0.01,WUHU216DAVISVP2,2013-06-02 02:28:00,
2013-06-01 22:31:00,70.4,64.0,28.93,WSW,239,10.0,20.0,80,0.00,,,0.01,WUHU216DAVISVP2,2013-06-02 02:31:00,
2013-06-01 22:32:00,70.3,63.9,28.93,WSW,254,6.0,20.0,80,0.00,,,0.01,WUHU216DAVISVP2,2013-06-02 02:32:00,
2013-06-01 22:33:00,70.3,63.9,28.93,SSW,210,9.0,20.0,80,0.00,,,0.01,WUHU216DAVISVP2,2013-06-02 02:33:00,
2013-06-01 22:34:00,70.3,63.9,28.93,WSW,251,13.0,20.0,80,0.00,,,0.01,WUHU216DAVISVP2,2013-06-02 02:34:00,
2013-06-01 22:37:00,70.3,63.9,28.93,West,263,8.0,20.0,80,0.00,,,0.01,WUHU216DAVISVP2,2013-06-02 02:37:00,
2013-06-01 22:38:00,70.2,63.8,28.93,WSW,258,7.0,20.0,80,0.00,,,0.01,WUHU216DAVISVP2,2013-06-02 02:38:00,
2013-06-01 22:39:00,70.2,63.8,28.93,WSW,249,7.0,16.0,80,0.00,,,0.01,WUHU216DAVISVP2,2013-06-02 02:39:00,
2013-06-01 22:42:00,70.1,63.7,28.93,SW,222,6.0,16.0,80,0.00,,,0.01,WUHU216DAVISVP2,2013-06-02 02:42:00,
2013-06-01 22:43:00,70.1,63.7,28.93,WNW,284,12.0,16.0,80,0.00,,,0.01,WUHU216DAVISVP2,2013-06-02 02:43:00,
2013-06-01 22:44:00,70.1,63.7,28.93,SW,220,6.0,20.0,80,0.00,,,0.01,WUHU216DAVISVP2,2013-06-02 02:44:00,
2013-06-01 22:47:00,70.1,63.7,28.93,WSW,250,16.0,20.0,80,0.00,,,0.01,WUHU216DAVISVP2,2013-06-02 02:47:00,
2013-06-01 22:49:00,70.0,63.6,28.93,SSW,206,3.0,20.0,80,0.00,,,0.01,WUHU216DAVISVP2,2013-06-02 02:49:00,
2013-06-01 22:52:00,69.9,63.5,28.93,SW,234,7.0,20.0,80,0.00,,,0.01,WUHU216DAVISVP2,2013-06-02 02:52:00,
2013-06-01 22:53:00,69.9,63.5,28.94,WSW,245,7.0,20.0,80,0.00,,,0.01,WUHU216DAVISVP2,2013-06-02 02:53:00,
2013-06-01 22:54:00,69.9,63.5,28.94,West,259,7.0,20.0,80,0.00,,,0.01,WUHU216DAVISVP2,2013-06-02 02:54:00,
2013-06-01 22:57:00,69.9,63.9,28.94,WSW,247,13.0,20.0,81,0.00,,,0.01,WUHU216DAVISVP2,2013-06-02 02:57:00,
2013-06-01 22:58:00,69.9,63.9,28.94,WSW,238,8.0,20.0,81,0.00,,,0.01,WUHU216DAVISVP2,2013-06-02 02:58:00,
2013-06-01 22:59:00,69.8,63.8,28.94,WSW,243,15.0,20.0,81,0.00,,,0.01,WUHU216DAVISVP2,2013-06-02 02:59:00,
2013-06-01 23:02:00,69.7,63.7,28.93,WSW,253,7.0,19.0,81,0.00,,,0.01,WUHU216DAVISVP2,2013-06-02 03:02:00,
2013-06-01 23:03:00,69.7,63.7,28.93,West,260,12.0,19.0,81,0.00,,,0.01,WUHU216DAVISVP2,2013-06-02 03:03:00,
2013-06-01 23:04:00,69.7,63.7,28.93,WSW,239,8.0,19.0,81,0.00,,,0.01,WUHU216DAVISVP2,2013-06-02 03:04:00,
2013-06-01 23:08:00,69.6,63.6,28.93,WSW,258,7.0,21.0,81,0.00,,,0.01,WUHU216DAVISVP2,2013-06-02 03:08:00,
2013-06-01 23:09:00,69.5,63.5,28.93,West,259,7.0,21.0,81,0.00,,,0.01,WUHU216DAVISVP2,2013-06-02 03:09:00,
2013-06-01 23:10:00,69.5,63.5,28.93,WSW,241,10.0,21.0,81,0.00,,,0.01,WUHU216DAVISVP2,2013-06-02 03:10:00,
2013-06-01 23:13:00,69.4,63.4,28.94,West,266,16.0,21.0,81,0.00,,,0.01,WUHU216DAVISVP2,2013-06-02 03:13:00,
2013-06-01 23:14:00,69.4,63.4,28.93,WSW,246,8.0,21.0,81,0.00,,,0.01,WUHU216DAVISVP2,2013-06-02 03:14:00,
2013-06-01 23:15:00,69.4,63.4,28.93,West,261,8.0,21.0,81,0.00,,,0.01,WUHU216DAVISVP2,2013-06-02 03:15:00,
2013-06-01 23:18:00,69.4,63.4,28.93,West,259,11.0,21.0,81,0.00,,,0.01,WUHU216DAVISVP2,2013-06-02 03:18:00,
2013-06-01 23:20:00,69.3,63.3,28.93,WSW,248,16.0,22.0,81,0.00,,,0.01,WUHU216DAVISVP2,2013-06-02 03:20:00,
2013-06-01 23:23:00,69.3,63.6,28.93,WSW,237,20.0,22.0,82,0.00,,,0.01,WUHU216DAVISVP2,2013-06-02 03:23:00,
2013-06-01 23:25:00,69.3,63.6,28.93,West,273,9.0,22.0,82,0.00,,,0.01,WUHU216DAVISVP2,2013-06-02 03:25:00,
2013-06-01 23:26:00,69.2,63.5,28.93,West,260,9.0,22.0,82,0.00,,,0.01,WUHU216DAVISVP2,2013-06-02 03:26:00,
2013-06-01 23:28:00,69.2,63.5,28.93,WSW,245,11.0,22.0,82,0.00,,,0.01,WUHU216DAVISVP2,2013-06-02 03:28:00,
2013-06-01 23:29:00,69.2,63.5,28.93,WSW,249,14.0,22.0,82,0.00,,,0.01,WUHU216DAVISVP2,2013-06-02 03:29:00,
2013-06-01 23:30:00,69.1,63.4,28.93,WSW,251,9.0,23.0,82,0.00,,,0.01,WUHU216DAVISVP2,2013-06-02 03:30:00,
2013-06-01 23:31:00,69.1,63.4,28.93,WSW,246,4.0,23.0,82,0.00,,,0.01,WUHU216DAVISVP2,2013-06-02 03:31:00,
2013-06-01 23:34:00,69.0,63.3,28.93,WSW,243,8.0,23.0,82,0.00,,,0.01,WUHU216DAVISVP2,2013-06-02 03:34:00,
2013-06-01 23:35:00,69.0,63.3,28.93,WSW,258,12.0,23.0,82,0.00,,,0.01,WUHU216DAVISVP2,2013-06-02 03:35:00,
2013-06-01 23:36:00,69.0,63.3,28.93,West,265,8.0,23.0,82,0.00,,,0.01,WUHU216DAVISVP2,2013-06-02 03:36:00,
2013-06-01 23:37:00,68.9,63.6,28.94,WSW,244,15.0,23.0,83,0.00,,,0.01,WUHU216DAVISVP2,2013-06-02 03:37:00,
2013-06-01 23:39:00,68.9,63.6,28.93,West,269,9.0,23.0,83,0.00,,,0.01,WUHU216DAVISVP2,2013-06-02 03:39:00,
2013-06-01 23:40:00,68.9,63.6,28.93,WSW,258,8.0,23.0,83,0.00,,,0.01,WUHU216DAVISVP2,2013-06-02 03:40:00,
2013-06-01 23:41:00,68.9,63.6,28.93,SSW,208,3.0,23.0,83,0.00,,,0.01,WUHU216DAVISVP2,2013-06-02 03:41:00,
2013-06-01 23:42:00,68.9,63.6,28.93,WSW,256,10.0,23.0,83,0.00,,,0.01,WUHU216DAVISVP2,2013-06-02 03:42:00,
2013-06-01 23:44:00,68.8,63.4,28.93,West,276,9.0,23.0,83,0.00,,,0.01,WUHU216DAVISVP2,2013-06-02 03:44:00,
2013-06-01 23:46:00,68.8,63.4,28.93,WSW,256,5.0,23.0,83,0.00,,,0.01,WUHU216DAVISVP2,2013-06-02 03:46:00,
2013-06-01 23:47:00,68.8,63.4,28.93,WSW,253,7.0,23.0,83,0.00,,,0.01,WUHU216DAVISVP2,2013-06-02 03:47:00,
2013-06-01 23:49:00,68.7,63.3,28.93,West,260,7.0,22.0,83,0.00,,,0.01,WUHU216DAVISVP2,2013-06-02 03:49:00,
2013-06-01 23:51:00,68.6,63.3,28.93,West,259,11.0,22.0,83,0.00,,,0.01,WUHU216DAVISVP2,2013-06-02 03:51:00,
2013-06-01 23:52:00,68.6,63.3,28.93,West,263,6.0,22.0,83,0.00,,,0.01,WUHU216DAVISVP2,2013-06-02 03:52:00,
2013-06-01 23:54:00,68.6,63.6,28.93,WSW,239,14.0,19.0,84,0.00,,,0.01,WUHU216DAVISVP2,2013-06-02 03:54:00,
2013-06-01 23:56:00,68.5,63.5,28.93,WSW,241,11.0,19.0,84,0.00,,,0.01,WUHU216DAVISVP2,2013-06-02 03:56:00,
2013-06-01 23:57:00,68.5,63.5,28.93,SSW,201,4.0,19.0,84,0.00,,,0.01,WUHU216DAVISVP2,2013-06-02 03:57:00,
2013-06-01 23:59:00,68.5,63.5,28.92,WSW,256,8.0,19.0,84,0.00,,,0.01,WUHU216DAVISVP2,2013-06-02 03:59:00,